Darstellungsparameter: Aktuell verwendete Einstellungen:
Skalierung der Graphiken ... ?
xyx+y,   Skalierungsfaktor:      Skalierung: Modus: x, Faktor: 1
Darstellungszeitraum ... ?
Vom - - bis: - -   Zeitraum: 03.08.2015 - 02.08.2020
Min/Max/Avg-Anzeige ... ?
Zeige MMA aktuell
Zeige MMA Monat
Zeige MMA alles
Zeige --A aktuell
Zeige --A Monat
Zeige --A alles
Keine MMA-Anzeige
MMA:
Keine MMA-Graphiken
MMA-Basis: 03.08.2015 - 02.08.2020
Quicknavigation für Darstellung... ?
Tage:      1T, 2T, 3T, 5T -1T -2T -3T -5T +1T +2T +3T +5T
Wochen: 1W, 2W, 3W -1W -2W -3W +1W +2W +3W
Monate: 1M, 3M, 6M -1M -3M -6M +1M +3M +6M
Jahre:    1J, 3J, 5J, 10J -1J -3J -5J -10J +1J +3J +5J +10J
Nutze für die Darstellung ... ?
Originaldaten oder ...
Mittelwerte Minima Maxima auf...
Stundenbasis Tagesbasis Wochenbasis
Monatsbasis Jahresbasis      Datenbasis: Mittelwerte auf Tagesbasis
Darstellen als:
Statistik (Auto) Statistik J:M      Darstellung:
Zur Graphik,    zurück zur Übersicht aller Sensoren.
 
Tabellarische Datenbersicht: ?
 
Sensor: Nr:Datum:Temp:Feuchte:Taupunkt:
Aussen-T/F 1 03-08-2015 00:00:00 23.19217 C 57.6157 % 14.37 C
2 04-08-2015 00:00:00 19.03299 C 81.7396 % 15.84 C
3 05-08-2015 00:00:00 19.79201 C 76.1424 % 15.47 C
4 06-08-2015 00:00:00 24 C 66.2153 % 17.31 C
5 07-08-2015 00:00:00 26.94306 C 61.3715 % 18.88 C
6 08-08-2015 00:00:00 22.82014 C 79.2431 % 19.03 C
7 09-08-2015 00:00:00 21.98785 C 77.7708 % 17.93 C
8 10-08-2015 00:00:00 19.76944 C 83.2465 % 16.85 C
9 11-08-2015 00:00:00 21.91979 C 74.4583 % 17.17 C
10 12-08-2015 00:00:00 23.09896 C 77.4583 % 18.94 C
11 13-08-2015 00:00:00 25.32292 C 70.7535 % 19.63 C
12 14-08-2015 00:00:00 24.17396 C 69.3611 % 18.21 C
13 15-08-2015 00:00:00 20.86319 C 72.4201 % 15.72 C
14 16-08-2015 00:00:00 15.85799 C 89.8924 % 14.2 C
15 17-08-2015 00:00:00 14.78889 C 90.7396 % 13.29 C
16 18-08-2015 00:00:00 15.90625 C 82.9757 % 13.02 C
17 19-08-2015 00:00:00 15.71493 C 78.1458 % 11.92 C
18 20-08-2015 00:00:00 18.10382 C 74.0625 % 13.41 C
19 21-08-2015 00:00:00 18.85764 C 70.1910 % 13.31 C
20 22-08-2015 00:00:00 19.10729 C 64.2708 % 12.21 C
21 23-08-2015 00:00:00 19.89722 C 63.7431 % 12.83 C
22 24-08-2015 00:00:00 19.22187 C 83.3750 % 16.34 C
23 25-08-2015 00:00:00 17.40729 C 68.3472 % 11.52 C
24 26-08-2015 00:00:00 20.71458 C 65.1667 % 13.94 C
25 27-08-2015 00:00:00 18.60486 C 83.2986 % 15.72 C
Sensor: Nr:Datum:Temp:Feuchte:Taupunkt:
Aussen-T/F 26 28-08-2015 00:00:00 16.57292 C 89.2813 % 14.8 C
27 29-08-2015 00:00:00 19.31181 C 88.3993 % 17.35 C
28 30-08-2015 00:00:00 23.12396 C 82.7396 % 20.03 C
29 31-08-2015 00:00:00 24.2934 C 69.7604 % 18.42 C
30 01-09-2015 00:00:00 17.4059 C 90.9826 % 15.92 C
31 02-09-2015 00:00:00 15.13229 C 84.9479 % 12.62 C
32 03-09-2015 00:00:00 13.95937 C 84.7326 % 11.43 C
33 04-09-2015 00:00:00 13.54792 C 79.5833 % 10.09 C
34 05-09-2015 00:00:00 13.21701 C 84.4479 % 10.65 C
35 06-09-2015 00:00:00 13.11632 C 74.0868 % 8.61 C
36 07-09-2015 00:00:00 13.56493 C 87.0000 % 11.44 C
37 08-09-2015 00:00:00 15.09236 C 84.9271 % 12.58 C
38 09-09-2015 00:00:00 15.60139 C 76.2118 % 11.43 C
39 10-09-2015 00:00:00 13.23854 C 76.5972 % 9.22 C
40 11-09-2015 00:00:00 13.19792 C 79.2847 % 9.69 C
41 12-09-2015 00:00:00 15.35312 C 83.7361 % 12.62 C
42 13-09-2015 00:00:00 17.07153 C 92.6042 % 15.86 C
43 14-09-2015 00:00:00 15.52639 C 91.7431 % 14.19 C
44 15-09-2015 00:00:00 12.94931 C 87.0938 % 10.86 C
45 16-09-2015 00:00:00 15.01667 C 93.7153 % 14.01 C
46 17-09-2015 00:00:00 14.6566 C 91.2049 % 13.24 C
47 18-09-2015 00:00:00 14.53542 C 85.5278 % 12.14 C
48 19-09-2015 00:00:00 14.32292 C 87.2118 % 12.23 C
49 20-09-2015 00:00:00 13.77188 C 84.7743 % 11.26 C
50 21-09-2015 00:00:00 12.22847 C 90.1354 % 10.66 C
Sensor: Nr:Datum:Temp:Feuchte:Taupunkt:
Aussen-T/F 51 22-09-2015 00:00:00 13.06701 C 91.6285 % 11.74 C
52 23-09-2015 00:00:00 11.92535 C 93.3056 % 10.88 C
53 24-09-2015 00:00:00 13.09618 C 90.9340 % 11.65 C
54 25-09-2015 00:00:00 13.95278 C 87.2257 % 11.86 C
55 26-09-2015 00:00:00 12.73889 C 89.2049 % 11.01 C
56 27-09-2015 00:00:00 11.29236 C 83.7500 % 8.65 C
57 28-09-2015 00:00:00 10.50729 C 82.5556 % 7.67 C
58 29-09-2015 00:00:00 10.96979 C 81.2257 % 7.88 C
59 30-09-2015 00:00:00 10.73368 C 77.8993 % 7.04 C
60 01-10-2015 00:00:00 9.88646 C 74.8576 % 5.64 C
61 02-10-2015 00:00:00 9.21528 C 85.2083 % 6.86 C
62 03-10-2015 00:00:00 11.40139 C 85.8993 % 9.13 C
63 04-10-2015 00:00:00 12.61562 C 91.5000 % 11.27 C
64 05-10-2015 00:00:00 11.96597 C 92.3958 % 10.77 C
65 06-10-2015 00:00:00 15.93854 C 95.3576 % 15.2 C
66 07-10-2015 00:00:00 14.99028 C 89.4375 % 13.27 C
67 08-10-2015 00:00:00 13.45521 C 86.9167 % 11.32 C
68 09-10-2015 00:00:00 12.29618 C 93.3993 % 11.26 C
69 10-10-2015 00:00:00 12.19271 C 87.9236 % 10.25 C
70 11-10-2015 00:00:00 8.37431 C 76.8542 % 4.56 C
71 12-10-2015 00:00:00 5.28229 C 82.6007 % 2.57 C
72 13-10-2015 00:00:00 4.33542 C 90.2049 % 2.88 C
73 14-10-2015 00:00:00 3.63333 C 95.0139 % 2.91 C
74 15-10-2015 00:00:00 4.25694 C 95.2500 % 3.57 C
75 16-10-2015 00:00:00 6.52431 C 92.4236 % 5.39 C
Sensor: Nr:Datum:Temp:Feuchte:Taupunkt:
Aussen-T/F 76 17-10-2015 00:00:00 6.99375 C 89.5000 % 5.39 C
77 18-10-2015 00:00:00 7.25556 C 90.9896 % 5.89 C
78 19-10-2015 00:00:00 8.22361 C 91.6285 % 6.94 C
79 20-10-2015 00:00:00 9.33576 C 93.8785 % 8.4 C
80 21-10-2015 00:00:00 9.83611 C 91.5903 % 8.53 C
81 22-10-2015 00:00:00 11.18472 C 88.5000 % 9.36 C
82 23-10-2015 00:00:00 10.26979 C 95.0417 % 9.51 C
83 24-10-2015 00:00:00 11.03438 C 89.7465 % 9.42 C
84 25-10-2015 00:00:00 11.68229 C 92.6528 % 10.53 C
85 26-10-2015 00:00:00 9.55312 C 94.6736 % 8.74 C
86 27-10-2015 00:00:00 8.10278 C 94.6701 % 7.3 C
87 28-10-2015 00:00:00 9.54444 C 91.5382 % 8.24 C
88 29-10-2015 00:00:00 10.48299 C 92.5799 % 9.33 C
89 30-10-2015 00:00:00 7.79965 C 95.7917 % 7.17 C
90 31-10-2015 00:00:00 7.27118 C 93.9479 % 6.36 C
91 01-11-2015 00:00:00 6.57708 C 96.2118 % 6.02 C
92 02-11-2015 00:00:00 4.67431 C 96.7049 % 4.2 C
93 03-11-2015 00:00:00 4.99896 C 95.2813 % 4.31 C
94 04-11-2015 00:00:00 7.79549 C 94.1146 % 6.91 C
95 05-11-2015 00:00:00 10.38299 C 95.2569 % 9.66 C
96 06-11-2015 00:00:00 13.31493 C 92.8854 % 12.19 C
97 07-11-2015 00:00:00 16.40417 C 94.1493 % 15.46 C
98 08-11-2015 00:00:00 12.97292 C 95.2118 % 12.23 C
99 09-11-2015 00:00:00 14.80846 C 83.2353 % 11.99 C
100 10-11-2015 00:00:00 13.07951 C 84.1493 % 10.47 C
Sensor: Nr:Datum:Temp:Feuchte:Taupunkt:
Aussen-T/F 101 11-11-2015 00:00:00 11.7066 C 84.5625 % 9.2 C
102 12-11-2015 00:00:00 11.71562 C 87.6354 % 9.73 C
103 13-11-2015 00:00:00 10.51875 C 88.3993 % 8.68 C
104 14-11-2015 00:00:00 8.91806 C 83.4722 % 6.27 C
105 15-11-2015 00:00:00 12.53854 C 84.1944 % 9.95 C
106 16-11-2015 00:00:00 11.63438 C 83.7708 % 8.99 C
107 17-11-2015 00:00:00 14.03889 C 89.3438 % 12.31 C
108 18-11-2015 00:00:00 13.87604 C 73.4063 % 9.21 C
109 19-11-2015 00:00:00 12.23611 C 85.8750 % 9.94 C
110 20-11-2015 00:00:00 7.64444 C 94.6667 % 6.84 C
111 21-11-2015 00:00:00 3.88021 C 91.2500 % 2.59 C
112 22-11-2015 00:00:00 2.85139 C 91.2396 % 1.57 C
113 23-11-2015 00:00:00 2.48125 C 91.7917 % 1.29 C
114 24-11-2015 00:00:00 1.88785 C 89.9931 % 0.42 C
115 25-11-2015 00:00:00 4.63646 C 91.6528 % 3.4 C
116 26-11-2015 00:00:00 4.92257 C 92.5174 % 3.81 C
117 27-11-2015 00:00:00 2.23299 C 94.7951 % 1.49 C
118 28-11-2015 00:00:00 4.42821 C 85.6357 % 2.24 C
119 29-11-2015 00:00:00 9.10451 C 86.0660 % 6.9 C
120 30-11-2015 00:00:00 9.89514 C 90.3056 % 8.38 C
121 01-12-2015 00:00:00 11.24618 C 92.4410 % 10.07 C
122 02-12-2015 00:00:00 9.85729 C 87.9375 % 7.96 C
123 03-12-2015 00:00:00 7.55664 C 86.3252 % 5.42 C
124 04-12-2015 00:00:00 6.93333 C 91.5694 % 5.66 C
125 05-12-2015 00:00:00 6.05903 C 89.7500 % 4.51 C
Sensor: Nr:Datum:Temp:Feuchte:Taupunkt:
Aussen-T/F 126 06-12-2015 00:00:00 8.44861 C 86.8160 % 6.38 C
127 07-12-2015 00:00:00 8.35868 C 92.6840 % 7.24 C
128 08-12-2015 00:00:00 4.51007 C 97.2292 % 4.11 C
129 09-12-2015 00:00:00 6.58229 C 94.7396 % 5.8 C
130 10-12-2015 00:00:00 3.22882 C 93.5590 % 2.29 C
131 11-12-2015 00:00:00 4.75451 C 92.5069 % 3.65 C
132 12-12-2015 00:00:00 8.05903 C 95.3681 % 7.36 C
133 13-12-2015 00:00:00 8.6316 C 90.9167 % 7.23 C
134 14-12-2015 00:00:00 5.9875 C 96.5243 % 5.48 C
135 15-12-2015 00:00:00 5.6816 C 96.2813 % 5.14 C
136 16-12-2015 00:00:00 9.66146 C 97.4514 % 9.28 C
137 17-12-2015 00:00:00 12.51647 C 94.1098 % 11.6 C
138 18-12-2015 00:00:00 11.17396 C 93.8472 % 10.22 C
139 19-12-2015 00:00:00 11.26667 C 91.7708 % 9.98 C
140 20-12-2015 00:00:00 7.84687 C 96.5278 % 7.33 C
141 21-12-2015 00:00:00 10.07014 C 88.0938 % 8.19 C
142 22-12-2015 00:00:00 11.62281 C 82.5175 % 8.75 C
143 23-12-2015 00:00:00 10.964 C 81.0000 % 7.83 C
144 24-12-2015 00:00:00 11.76867 C 85.1506 % 9.36 C
145 25-12-2015 00:00:00 11.08646 C 87.9063 % 9.16 C
146 26-12-2015 00:00:00 10.37257 C 87.6354 % 8.41 C
147 27-12-2015 00:00:00 7.5375 C 92.7847 % 6.45 C
148 28-12-2015 00:00:00 2.6941 C 97.0833 % 2.28 C
149 29-12-2015 00:00:00 3.10521 C 97.6493 % 2.77 C
150 30-12-2015 00:00:00 4.88299 C 93.8507 % 3.98 C
Sensor: Nr:Datum:Temp:Feuchte:Taupunkt:
Aussen-T/F 151 31-12-2015 00:00:00 5.0934 C 93.0000 % 4.06 C
152 01-01-2016 00:00:00 4.17222 C 95.5521 % 3.53 C
153 02-01-2016 00:00:00 4.50451 C 93.6563 % 3.57 C
154 03-01-2016 00:00:00 5.64826 C 92.3889 % 4.51 C
155 04-01-2016 00:00:00 5.3184 C 94.4861 % 4.51 C
156 05-01-2016 00:00:00 6.45694 C 91.6285 % 5.2 C
157 06-01-2016 00:00:00 5.95903 C 94.3542 % 5.12 C
158 07-01-2016 00:00:00 5.04028 C 94.1042 % 4.17 C
159 08-01-2016 00:00:00 3.28646 C 90.7396 % 1.92 C
160 09-01-2016 00:00:00 1.12292 C 97.2361 % 0.73 C
161 10-01-2016 00:00:00 6.27708 C 91.8785 % 5.06 C
162 11-01-2016 00:00:00 5.25729 C 94.6875 % 4.48 C
163 12-01-2016 00:00:00 5.58229 C 88.8229 % 3.89 C
164 13-01-2016 00:00:00 4.93333 C 89.9931 % 3.43 C
165 14-01-2016 00:00:00 3.31701 C 89.1944 % 1.71 C
166 15-01-2016 00:00:00 2.89062 C 90.6806 % 1.52 C
167 16-01-2016 00:00:00 2.0875 C 90.9653 % 0.77 C
168 17-01-2016 00:00:00 0.26424 C 83.9583 % -2.12 C
169 18-01-2016 00:00:00 -4.85799 C 90.6840 % -6.14 C
170 19-01-2016 00:00:00 -5.27882 C 89.7257 % -6.7 C
171 20-01-2016 00:00:00 -1.61806 C 91.4618 % -2.82 C
172 21-01-2016 00:00:00 0.6684 C 92.9618 % -0.34 C
173 22-01-2016 00:00:00 -2.10729 C 91.9201 % -3.24 C
174 23-01-2016 00:00:00 4.1559 C 94.7465 % 3.39 C
175 24-01-2016 00:00:00 5.37396 C 93.7882 % 4.46 C
Sensor: Nr:Datum:Temp:Feuchte:Taupunkt:
Aussen-T/F 176 25-01-2016 00:00:00 7.51076 C 93.2813 % 6.5 C
177 26-01-2016 00:00:00 9.35729 C 85.4410 % 7.04 C
178 27-01-2016 00:00:00 11.44792 C 70.5313 % 6.29 C
179 28-01-2016 00:00:00 7.3625 C 85.9931 % 5.18 C
180 29-01-2016 00:00:00 5.64583 C 86.0833 % 3.51 C
181 30-01-2016 00:00:00 7.42914 C 86.8885 % 5.39 C
182 31-01-2016 00:00:00 6.31944 C 89.3819 % 4.7 C
183 01-02-2016 00:00:00 11.92326 C 84.3993 % 9.38 C
184 02-02-2016 00:00:00 10.40035 C 86.6354 % 8.27 C
185 03-02-2016 00:00:00 5.14306 C 85.1354 % 2.86 C
186 04-02-2016 00:00:00 4.62118 C 90.7153 % 3.24 C
187 05-02-2016 00:00:00 7.46076 C 91.2847 % 6.13 C
188 06-02-2016 00:00:00 8.36806 C 86.5069 % 6.25 C
189 07-02-2016 00:00:00 9.22743 C 76.8021 % 5.37 C
190 08-02-2016 00:00:00 8.09062 C 80.4167 % 4.93 C
191 09-02-2016 00:00:00 7.11076 C 85.9306 % 4.92 C
192 10-02-2016 00:00:00 4.86562 C 85.1493 % 2.59 C
193 11-02-2016 00:00:00 4.89444 C 87.2674 % 2.96 C
194 12-02-2016 00:00:00 3.0316 C 85.9826 % 0.92 C
195 13-02-2016 00:00:00 1.57049 C 93.5625 % 0.65 C
196 14-02-2016 00:00:00 4.64965 C 94.9931 % 3.92 C
197 15-02-2016 00:00:00 2.20278 C 91.7396 % 1 C
198 16-02-2016 00:00:00 0.19792 C 81.4688 % -2.59 C
199 17-02-2016 00:00:00 0.40625 C 88.6771 % -1.24 C
200 18-02-2016 00:00:00 2.11285 C 85.4514 % -0.07 C
Sensor: Nr:Datum:Temp:Feuchte:Taupunkt:
Aussen-T/F 201 19-02-2016 00:00:00 1.43507 C 92.3472 % 0.33 C
202 20-02-2016 00:00:00 6.41528 C 92.1944 % 5.24 C
203 21-02-2016 00:00:00 11.8375 C 88.1042 % 9.93 C
204 22-02-2016 00:00:00 9.57778 C 85.1250 % 7.21 C
205 23-02-2016 00:00:00 2.26424 C 95.8333 % 1.67 C
206 24-02-2016 00:00:00 2.15243 C 91.2674 % 0.88 C
207 25-02-2016 00:00:00 0.66597 C 90.3507 % -0.73 C
208 26-02-2016 00:00:00 2.36771 C 85.4931 % 0.19 C
209 27-02-2016 00:00:00 2.35694 C 77.3333 % -1.19 C
210 28-02-2016 00:00:00 2.12509 C 77.4145 % -1.4 C
211 29-02-2016 00:00:00 3.32569 C 70.7847 % -1.46 C
212 01-03-2016 00:00:00 1.1875 C 81.7361 % -1.58 C
213 02-03-2016 00:00:00 6.5125 C 83.4375 % 3.91 C
214 03-03-2016 00:00:00 3.61736 C 87.0208 % 1.66 C
215 04-03-2016 00:00:00 1.76528 C 93.4722 % 0.83 C
216 05-03-2016 00:00:00 4.32153 C 92.1042 % 3.16 C
217 06-03-2016 00:00:00 3.0434 C 94.2535 % 2.21 C
218 07-03-2016 00:00:00 2.40347 C 93.7049 % 1.5 C
219 08-03-2016 00:00:00 1.75521 C 90.5972 % 0.39 C
220 09-03-2016 00:00:00 2.60799 C 83.1042 % 0.04 C
221 10-03-2016 00:00:00 2.73576 C 83.8264 % 0.28 C
222 11-03-2016 00:00:00 4.25868 C 83.4757 % 1.71 C
223 12-03-2016 00:00:00 4.36424 C 78.1215 % 0.9 C
224 13-03-2016 00:00:00 5.06944 C 77.3924 % 1.45 C
225 14-03-2016 00:00:00 4.20451 C 71.0174 % -0.57 C
Sensor: Nr:Datum:Temp:Feuchte:Taupunkt:
Aussen-T/F 226 15-03-2016 00:00:00 3.53264 C 80.5833 % 0.52 C
227 16-03-2016 00:00:00 4.7066 C 73.0556 % 0.3 C
228 17-03-2016 00:00:00 4.57049 C 75.0625 % 0.54 C
229 18-03-2016 00:00:00 3.8934 C 83.0868 % 1.29 C
230 19-03-2016 00:00:00 5.67465 C 87.0938 % 3.7 C
231 20-03-2016 00:00:00 5.89583 C 80.9514 % 2.88 C
232 21-03-2016 00:00:00 7.0625 C 84.7813 % 4.68 C
233 22-03-2016 00:00:00 8.10035 C 79.6354 % 4.8 C
234 23-03-2016 00:00:00 7.93438 C 81.8576 % 5.03 C
235 24-03-2016 00:00:00 7.05069 C 85.9410 % 4.86 C
236 25-03-2016 00:00:00 6.93125 C 92.5347 % 5.81 C
237 26-03-2016 00:00:00 9.02778 C 82.5382 % 6.22 C
238 27-03-2016 00:00:00 9.36558 C 82.0543 % 6.46 C
239 28-03-2016 00:00:00 8.24167 C 84.3993 % 5.77 C
240 29-03-2016 00:00:00 9.19792 C 74.2535 % 4.86 C
241 30-03-2016 00:00:00 9.98958 C 84.7431 % 7.54 C
242 31-03-2016 00:00:00 7.10243 C 92.7153 % 6 C
243 01-04-2016 00:00:00 7.02396 C 85.1076 % 4.7 C
244 02-04-2016 00:00:00 8.56007 C 85.2361 % 6.23 C
245 03-04-2016 00:00:00 13.56285 C 81.3472 % 10.43 C
246 04-04-2016 00:00:00 13.63299 C 81.7951 % 10.58 C
247 05-04-2016 00:00:00 11.25069 C 92.5313 % 10.09 C
248 06-04-2016 00:00:00 10.87153 C 79.3507 % 7.44 C
249 07-04-2016 00:00:00 8.49479 C 75.7014 % 4.46 C
250 08-04-2016 00:00:00 6.48403 C 79.6181 % 3.22 C
Sensor: Nr:Datum:Temp:Feuchte:Taupunkt:
Aussen-T/F 251 09-04-2016 00:00:00 8.00139 C 72.3785 % 3.34 C
252 10-04-2016 00:00:00 11.74757 C 69.9479 % 6.45 C
253 11-04-2016 00:00:00 12.00972 C 70.4757 % 6.81 C
254 12-04-2016 00:00:00 11.31181 C 78.9861 % 7.8 C
255 13-04-2016 00:00:00 8.81354 C 93.8854 % 7.88 C
256 14-04-2016 00:00:00 10.59722 C 80.6215 % 7.41 C
257 15-04-2016 00:00:00 13.04618 C 74.1493 % 8.55 C
258 16-04-2016 00:00:00 11.99514 C 81.5035 % 8.93 C
259 17-04-2016 00:00:00 8.41111 C 77.1875 % 4.65 C
260 18-04-2016 00:00:00 7.11632 C 74.6910 % 2.94 C
261 19-04-2016 00:00:00 8.83507 C 72.7292 % 4.22 C
262 20-04-2016 00:00:00 9.1559 C 66.4826 % 3.25 C
263 21-04-2016 00:00:00 11.43229 C 64.2431 % 4.93 C
264 22-04-2016 00:00:00 13.17674 C 62.2014 % 6.11 C
265 23-04-2016 00:00:00 7.88299 C 78.2292 % 4.33 C
266 24-04-2016 00:00:00 5.24444 C 78.5243 % 1.82 C
267 25-04-2016 00:00:00 4.71632 C 85.9792 % 2.58 C
268 26-04-2016 00:00:00 4.5934 C 82.9306 % 1.95 C
269 27-04-2016 00:00:00 5.57465 C 78.2847 % 2.1 C
270 28-04-2016 00:00:00 6.65 C 71.1007 % 1.8 C
271 29-04-2016 00:00:00 7.88056 C 69.0972 % 2.58 C
272 30-04-2016 00:00:00 7.70174 C 83.3611 % 5.06 C
273 01-05-2016 00:00:00 10.10486 C 81.5451 % 7.09 C
274 02-05-2016 00:00:00 12.06389 C 73.2674 % 7.43 C
275 03-05-2016 00:00:00 10.93785 C 75.7222 % 6.83 C
Sensor: Nr:Datum:Temp:Feuchte:Taupunkt:
Aussen-T/F 276 04-05-2016 00:00:00 9.10035 C 68.4063 % 3.6 C
277 05-05-2016 00:00:00 11.45347 C 67.3507 % 5.63 C
278 06-05-2016 00:00:00 15.34618 C 68.6806 % 9.63 C
279 07-05-2016 00:00:00 16.83542 C 65.2604 % 10.28 C
280 08-05-2016 00:00:00 18.59861 C 52.5521 % 8.72 C
281 09-05-2016 00:00:00 18.28715 C 61.7326 % 10.82 C
282 10-05-2016 00:00:00 17.08646 C 77.6076 % 13.15 C
283 11-05-2016 00:00:00 17.43438 C 75.9340 % 13.15 C
284 12-05-2016 00:00:00 17.84271 C 69.8472 % 12.27 C
285 13-05-2016 00:00:00 14.31736 C 89.5903 % 12.63 C
286 14-05-2016 00:00:00 10.45972 C 71.9549 % 5.63 C
287 15-05-2016 00:00:00 9.07743 C 70.0069 % 3.91 C
288 16-05-2016 00:00:00 9.98819 C 70.5069 % 4.88 C
289 17-05-2016 00:00:00 12.31563 C 69.0139 % 6.8 C
290 18-05-2016 00:00:00 14.47535 C 74.1007 % 9.92 C
291 19-05-2016 00:00:00 14.04722 C 75.6667 % 9.82 C
292 20-05-2016 00:00:00 14.08125 C 79.6771 % 10.63 C
293 21-05-2016 00:00:00 17.67708 C 74.5382 % 13.1 C
294 22-05-2016 00:00:00 18.70312 C 72.9201 % 13.75 C
295 23-05-2016 00:00:00 14.01632 C 83.2743 % 11.23 C
296 24-05-2016 00:00:00 10.97431 C 91.3264 % 9.62 C
297 25-05-2016 00:00:00 12.7125 C 87.5069 % 10.69 C
298 26-05-2016 00:00:00 14.89826 C 81.0938 % 11.69 C
299 27-05-2016 00:00:00 16.77849 C 90.6534 % 15.24 C
300 28-05-2016 00:00:00 18.08383 C 88.8922 % 16.22 C
Sensor: Nr:Datum:Temp:Feuchte:Taupunkt:
Aussen-T/F 301 29-05-2016 00:00:00 17.36528 C 89.6007 % 15.64 C
302 30-05-2016 00:00:00 17.49722 C 93.2639 % 16.4 C
303 31-05-2016 00:00:00 16.51458 C 87.4861 % 14.43 C
304 01-06-2016 00:00:00 15.69931 C 94.7153 % 14.85 C
305 02-06-2016 00:00:00 17.51979 C 92.0035 % 16.21 C
306 03-06-2016 00:00:00 16.76875 C 94.6806 % 15.91 C
307 04-06-2016 00:00:00 17.85104 C 90.8472 % 16.34 C
308 05-06-2016 00:00:00 19.18611 C 89.0486 % 17.34 C
309 06-06-2016 00:00:00 19.18785 C 86.9896 % 16.97 C
310 07-06-2016 00:00:00 19.88403 C 82.1597 % 16.75 C
311 08-06-2016 00:00:00 19.56354 C 77.2500 % 15.47 C
312 09-06-2016 00:00:00 17.3191 C 71.5556 % 12.13 C
313 10-06-2016 00:00:00 16.15521 C 71.4444 % 10.99 C
314 11-06-2016 00:00:00 17.56701 C 74.5035 % 12.99 C
315 12-06-2016 00:00:00 17.18299 C 86.9931 % 15 C
316 13-06-2016 00:00:00 15.94479 C 94.8472 % 15.12 C
317 14-06-2016 00:00:00 16.36597 C 87.8507 % 14.35 C
318 15-06-2016 00:00:00 15.42431 C 86.9340 % 13.26 C
319 16-06-2016 00:00:00 13.77292 C 93.5903 % 12.76 C
320 17-06-2016 00:00:00 14.68889 C 90.7882 % 13.2 C
321 18-06-2016 00:00:00 14.84861 C 87.4549 % 12.79 C
322 19-06-2016 00:00:00 15.40278 C 75.9653 % 11.19 C
323 20-06-2016 00:00:00 14.61979 C 81.8958 % 11.56 C
324 21-06-2016 00:00:00 18.21736 C 88.4757 % 16.28 C
325 22-06-2016 00:00:00 20.84792 C 87.8333 % 18.76 C
Sensor: Nr:Datum:Temp:Feuchte:Taupunkt:
Aussen-T/F 326 23-06-2016 00:00:00 23.76528 C 81.5243 % 20.41 C
327 24-06-2016 00:00:00 22.11979 C 90.4826 % 20.49 C
328 25-06-2016 00:00:00 16.85451 C 95.9306 % 16.2 C
329 26-06-2016 00:00:00 15.41562 C 85.3854 % 12.98 C
330 27-06-2016 00:00:00 15.91562 C 86.7743 % 13.72 C
331 28-06-2016 00:00:00 18.26597 C 84.3646 % 15.58 C
332 29-06-2016 00:00:00 19.04444 C 74.5521 % 14.42 C
333 30-06-2016 00:00:00 18.7566 C 80.8264 % 15.4 C
334 01-07-2016 00:00:00 19.88194 C 81.0556 % 16.54 C
335 02-07-2016 00:00:00 16.90868 C 78.6840 % 13.18 C
336 03-07-2016 00:00:00 15.21559 C 83.5437 % 12.45 C
337 04-07-2016 00:00:00 17.43333 C 82.9201 % 14.5 C
338 05-07-2016 00:00:00 19.40903 C 78.1979 % 15.51 C
339 06-07-2016 00:00:00 16.61042 C 74.0104 % 11.96 C
340 07-07-2016 00:00:00 17.08576 C 77.8785 % 13.2 C
341 08-07-2016 00:00:00 18.87222 C 80.7292 % 15.49 C
342 09-07-2016 00:00:00 21.08889 C 76.2778 % 16.75 C
343 10-07-2016 00:00:00 21.92535 C 79.2431 % 18.17 C
344 11-07-2016 00:00:00 21.61701 C 73.7326 % 16.73 C
345 12-07-2016 00:00:00 19.06354 C 74.7049 % 14.47 C
346 13-07-2016 00:00:00 14.71319 C 91.3750 % 13.32 C
347 14-07-2016 00:00:00 14.94583 C 79.4063 % 11.42 C
348 15-07-2016 00:00:00 16.08229 C 74.0417 % 11.46 C
349 16-07-2016 00:00:00 16.98542 C 83.0451 % 14.09 C
350 17-07-2016 00:00:00 21.34757 C 80.4132 % 17.84 C
Sensor: Nr:Datum:Temp:Feuchte:Taupunkt:
Aussen-T/F 351 18-07-2016 00:00:00 21.85069 C 75.3924 % 17.3 C
352 19-07-2016 00:00:00 21.61667 C 78.1597 % 17.65 C
353 20-07-2016 00:00:00 23.34097 C 74.8785 % 18.63 C
354 21-07-2016 00:00:00 21.23924 C 86.6632 % 18.93 C
355 22-07-2016 00:00:00 20.96806 C 88.7674 % 19.04 C
356 23-07-2016 00:00:00 20.3434 C 91.5104 % 18.91 C
357 24-07-2016 00:00:00 22.0941 C 85.4583 % 19.54 C
358 25-07-2016 00:00:00 21.8191 C 81.6910 % 18.55 C
359 26-07-2016 00:00:00 20.20208 C 86.3333 % 17.85 C
360 27-07-2016 00:00:00 19.62986 C 81.0313 % 16.29 C
361 28-07-2016 00:00:00 20.20174 C 82.7986 % 17.18 C
362 29-07-2016 00:00:00 19.81042 C 85.1319 % 17.24 C
363 30-07-2016 00:00:00 20.55278 C 78.7326 % 16.73 C
364 31-07-2016 00:00:00 18.14444 C 80.7535 % 14.79 C
365 01-08-2016 00:00:00 16.63958 C 78.4757 % 12.88 C
366 02-08-2016 00:00:00 16.16875 C 92.2986 % 14.92 C
367 03-08-2016 00:00:00 18.55174 C 94.0938 % 17.58 C
368 04-08-2016 00:00:00 18.01667 C 94.7188 % 17.16 C
369 05-08-2016 00:00:00 16.58403 C 88.5486 % 14.69 C
370 06-08-2016 00:00:00 17.59097 C 86.3924 % 15.29 C
371 07-08-2016 00:00:00 18.92153 C 81.4306 % 15.67 C
372 08-08-2016 00:00:00 19.25521 C 77.6701 % 15.26 C
373 09-08-2016 00:00:00 16.42986 C 72.2361 % 11.42 C
374 10-08-2016 00:00:00 13.02465 C 80.0243 % 9.66 C
375 11-08-2016 00:00:00 12.3 C 83.5417 % 9.6 C
Sensor: Nr:Datum:Temp:Feuchte:Taupunkt:
Aussen-T/F 376 12-08-2016 00:00:00 17.31701 C 90.8264 % 15.8 C
377 13-08-2016 00:00:00 20.62604 C 78.3715 % 16.73 C
378 14-08-2016 00:00:00 19.08924 C 80.5139 % 15.66 C
379 15-08-2016 00:00:00 18.95451 C 78.0243 % 15.04 C
380 16-08-2016 00:00:00 18.07778 C 75.1632 % 13.61 C
381 17-08-2016 00:00:00 18.14653 C 73.3785 % 13.31 C
382 18-08-2016 00:00:00 17.22743 C 82.1597 % 14.16 C
383 19-08-2016 00:00:00 19.36181 C 83.5174 % 16.5 C
384 20-08-2016 00:00:00 18.84757 C 83.1701 % 15.93 C
385 21-08-2016 00:00:00 17.07361 C 80.3611 % 13.67 C
386 22-08-2016 00:00:00 17.30799 C 84.0833 % 14.59 C
387 23-08-2016 00:00:00 19.09167 C 77.7708 % 15.12 C
388 24-08-2016 00:00:00 20.54583 C 77.3750 % 16.45 C
389 25-08-2016 00:00:00 21.59896 C 76.2118 % 17.23 C
390 26-08-2016 00:00:00 22.53715 C 76.8542 % 18.27 C
391 27-08-2016 00:00:00 23.96528 C 78.7674 % 20.05 C
392 28-08-2016 00:00:00 23.4684 C 72.0660 % 18.14 C
393 29-08-2016 00:00:00 18.98993 C 79.2326 % 15.31 C
394 30-08-2016 00:00:00 18.11736 C 75.7917 % 13.78 C
395 31-08-2016 00:00:00 17.84514 C 77.5278 % 13.86 C
396 01-09-2016 00:00:00 19.62431 C 75.6736 % 15.21 C
397 02-09-2016 00:00:00 18.78785 C 78.7361 % 15.02 C
398 03-09-2016 00:00:00 20.71944 C 73.6319 % 15.84 C
399 04-09-2016 00:00:00 18.18681 C 81.7396 % 15.02 C
400 05-09-2016 00:00:00 17.73715 C 79.3021 % 14.11 C
Sensor: Nr:Datum:Temp:Feuchte:Taupunkt:
Aussen-T/F 401 06-09-2016 00:00:00 16.62882 C 82.0938 % 13.56 C
402 07-09-2016 00:00:00 17.39792 C 80.3299 % 13.98 C
403 08-09-2016 00:00:00 19.44722 C 79.7535 % 15.86 C
404 09-09-2016 00:00:00 20.12222 C 70.5451 % 14.6 C
405 10-09-2016 00:00:00 19.21944 C 81.0729 % 15.89 C
406 11-09-2016 00:00:00 18.8684 C 76.5243 % 14.65 C
407 12-09-2016 00:00:00 19.58437 C 79.0764 % 15.86 C
408 13-09-2016 00:00:00 21.20937 C 77.7431 % 17.17 C
409 14-09-2016 00:00:00 20.91319 C 74.3924 % 16.19 C
410 15-09-2016 00:00:00 20.02847 C 76.3229 % 15.74 C
411 16-09-2016 00:00:00 17.33889 C 85.6076 % 14.9 C
412 17-09-2016 00:00:00 15.96146 C 85.0660 % 13.45 C
413 18-09-2016 00:00:00 17.13993 C 89.9549 % 15.48 C
414 19-09-2016 00:00:00 15.49201 C 84.4688 % 12.89 C
415 20-09-2016 00:00:00 14.8184 C 88.4965 % 12.94 C
416 21-09-2016 00:00:00 13.86563 C 78.4618 % 10.19 C
417 22-09-2016 00:00:00 11.70625 C 84.6944 % 9.22 C
418 23-09-2016 00:00:00 13.62518 C 86.6383 % 11.44 C
419 24-09-2016 00:00:00 13.82326 C 85.2188 % 11.39 C
420 25-09-2016 00:00:00 14.39201 C 85.4653 % 11.99 C
421 26-09-2016 00:00:00 14.99062 C 86.0799 % 12.68 C
422 27-09-2016 00:00:00 13.42847 C 93.2951 % 12.37 C
423 28-09-2016 00:00:00 15.2816 C 85.6632 % 12.9 C
424 29-09-2016 00:00:00 18.69375 C 79.3299 % 15.04 C
425 30-09-2016 00:00:00 15.12813 C 89.0451 % 13.34 C
Sensor: Nr:Datum:Temp:Feuchte:Taupunkt:
Aussen-T/F 426 01-10-2016 00:00:00 13.55804 C 95.6643 % 12.88 C
427 02-10-2016 00:00:00 12.49271 C 89.3333 % 10.79 C
428 03-10-2016 00:00:00 12.49236 C 92.3958 % 11.29 C
429 04-10-2016 00:00:00 10.89931 C 93.8333 % 9.95 C
430 05-10-2016 00:00:00 8.62465 C 83.2986 % 5.96 C
431 06-10-2016 00:00:00 7.98125 C 88.4201 % 6.19 C
432 07-10-2016 00:00:00 10.85069 C 93.5208 % 9.85 C
433 08-10-2016 00:00:00 9.28854 C 94.1042 % 8.39 C
434 09-10-2016 00:00:00 8.50868 C 91.9167 % 7.27 C
435 10-10-2016 00:00:00 6.46875 C 92.8993 % 5.41 C
436 11-10-2016 00:00:00 7.98993 C 90.9514 % 6.61 C
437 12-10-2016 00:00:00 8.69201 C 90.6111 % 7.24 C
438 13-10-2016 00:00:00 7.54583 C 87.7118 % 5.64 C
439 14-10-2016 00:00:00 9.31042 C 87.7674 % 7.39 C
440 15-10-2016 00:00:00 11.21667 C 90.9028 % 9.79 C
441 16-10-2016 00:00:00 8.72222 C 95.3646 % 8.02 C
442 17-10-2016 00:00:00 10.64132 C 96.5833 % 10.12 C
443 18-10-2016 00:00:00 11.33924 C 92.4236 % 10.16 C
444 19-10-2016 00:00:00 9.26389 C 89.1597 % 7.57 C
445 20-10-2016 00:00:00 8.03368 C 95.9097 % 7.42 C
446 21-10-2016 00:00:00 7.65845 C 95.9498 % 7.05 C
447 22-10-2016 00:00:00 7.80729 C 96.0000 % 7.21 C
448 23-10-2016 00:00:00 6.84236 C 95.3368 % 6.15 C
449 24-10-2016 00:00:00 9.37778 C 96.9931 % 8.93 C
450 25-10-2016 00:00:00 11.21424 C 95.8507 % 10.58 C
Sensor: Nr:Datum:Temp:Feuchte:Taupunkt:
Aussen-T/F 451 26-10-2016 00:00:00 9.47049 C 94.1597 % 8.58 C
452 27-10-2016 00:00:00 8.9309 C 95.3750 % 8.23 C
453 28-10-2016 00:00:00 11.35833 C 91.6597 % 10.05 C
454 29-10-2016 00:00:00 11.58854 C 90.4965 % 10.09 C
455 30-10-2016 00:00:00 7.61215 C 95.8229 % 6.99 C
456 31-10-2016 00:00:00 7.10417 C 96.0694 % 6.52 C
457 01-11-2016 00:00:00 6.92431 C 97.0694 % 6.49 C
458 02-11-2016 00:00:00 7.39618 C 91.7292 % 6.14 C
459 03-11-2016 00:00:00 6.31493 C 91.8819 % 5.09 C
460 04-11-2016 00:00:00 4.72674 C 94.8819 % 3.98 C
461 05-11-2016 00:00:00 6.88299 C 96.7118 % 6.4 C
462 06-11-2016 00:00:00 5.54201 C 89.6458 % 3.98 C
463 07-11-2016 00:00:00 4.69097 C 93.6354 % 3.75 C
464 08-11-2016 00:00:00 3.20521 C 92.4167 % 2.1 C
465 09-11-2016 00:00:00 3.69722 C 94.5417 % 2.9 C
466 10-11-2016 00:00:00 5.22847 C 94.8403 % 4.47 C
467 11-11-2016 00:00:00 5.08785 C 96.2569 % 4.54 C
468 12-11-2016 00:00:00 2.06181 C 93.0764 % 1.06 C
469 13-11-2016 00:00:00 2.12049 C 91.5347 % 0.89 C
470 14-11-2016 00:00:00 -0.38611 C 93.0799 % -1.37 C
471 15-11-2016 00:00:00 4.75208 C 92.9931 % 3.72 C
472 16-11-2016 00:00:00 9.88715 C 95.6910 % 9.23 C
473 17-11-2016 00:00:00 10.99757 C 89.4340 % 9.33 C
474 18-11-2016 00:00:00 9.44792 C 85.6667 % 7.17 C
475 19-11-2016 00:00:00 5.51319 C 87.6146 % 3.63 C
Sensor: Nr:Datum:Temp:Feuchte:Taupunkt:
Aussen-T/F 476 20-11-2016 00:00:00 9.3559 C 81.1806 % 6.3 C
477 21-11-2016 00:00:00 10.27813 C 92.0208 % 9.04 C
478 22-11-2016 00:00:00 10.22222 C 93.8160 % 9.27 C
479 23-11-2016 00:00:00 8.56389 C 96.9931 % 8.11 C
480 24-11-2016 00:00:00 8.79306 C 94.5590 % 7.97 C
481 25-11-2016 00:00:00 7.72222 C 85.3924 % 5.43 C
482 26-11-2016 00:00:00 6.87708 C 88.3542 % 5.09 C
483 27-11-2016 00:00:00 5.11215 C 92.9514 % 4.07 C
484 28-11-2016 00:00:00 -0.13333 C 93.4583 % -1.06 C
485 29-11-2016 00:00:00 -2.74097 C 91.0382 % -4 C
486 30-11-2016 00:00:00 -2.71076 C 92.1319 % -3.81 C
487 01-12-2016 00:00:00 3.3875 C 84.6354 % 1.05 C
488 02-12-2016 00:00:00 5.17361 C 93.7917 % 4.26 C
489 03-12-2016 00:00:00 -0.32882 C 96.9410 % -0.75 C
490 04-12-2016 00:00:00 -2.61215 C 96.1840 % -3.13 C
491 05-12-2016 00:00:00 -3.83507 C 95.3438 % -4.47 C
492 06-12-2016 00:00:00 -3.15903 C 95.5972 % -3.76 C
493 07-12-2016 00:00:00 -0.29965 C 96.1111 % -0.84 C
494 08-12-2016 00:00:00 1.07778 C 94.8542 % 0.35 C
495 09-12-2016 00:00:00 6.58819 C 84.4861 % 4.17 C
496 10-12-2016 00:00:00 5.04201 C 91.7743 % 3.82 C
497 11-12-2016 00:00:00 8.10174 C 85.5174 % 5.82 C
498 12-12-2016 00:00:00 6.76563 C 92.9792 % 5.71 C
499 13-12-2016 00:00:00 4.10868 C 96.3160 % 3.58 C
500 14-12-2016 00:00:00 6.42569 C 95.7986 % 5.81 C
Sensor: Nr:Datum:Temp:Feuchte:Taupunkt:
Aussen-T/F 501 15-12-2016 00:00:00 6.89583 C 94.3924 % 6.06 C
502 16-12-2016 00:00:00 4.60451 C 88.2778 % 2.84 C
503 17-12-2016 00:00:00 3.86806 C 91.7222 % 2.65 C
504 18-12-2016 00:00:00 5.3059 C 94.3750 % 4.48 C
505 19-12-2016 00:00:00 4.3816 C 89.4236 % 2.8 C
506 20-12-2016 00:00:00 1.0875 C 91.6424 % -0.12 C
507 21-12-2016 00:00:00 2.26076 C 91.9444 % 1.09 C
508 22-12-2016 00:00:00 3.84896 C 93.6701 % 2.92 C
509 23-12-2016 00:00:00 4.14757 C 95.4340 % 3.48 C
510 24-12-2016 00:00:00 7.17188 C 86.6597 % 5.1 C
511 25-12-2016 00:00:00 8.5434 C 89.2674 % 6.88 C
512 26-12-2016 00:00:00 7.71215 C 88.2118 % 5.89 C
513 27-12-2016 00:00:00 4.30139 C 88.8160 % 2.62 C
514 28-12-2016 00:00:00 3.53819 C 90.0035 % 2.06 C
515 29-12-2016 00:00:00 -1.78438 C 96.3299 % -2.29 C
516 30-12-2016 00:00:00 -2.37014 C 96.3924 % -2.86 C
517 31-12-2016 00:00:00 -4.09028 C 95.6424 % -4.68 C
518 01-01-2017 00:00:00 -2.24792 C 95.3854 % -2.88 C
519 02-01-2017 00:00:00 0.68021 C 94.3229 % -0.12 C
520 03-01-2017 00:00:00 1.83819 C 91.4340 % 0.59 C
521 04-01-2017 00:00:00 3.52049 C 90.0556 % 2.05 C
522 05-01-2017 00:00:00 0.04687 C 83.2813 % -2.44 C
523 06-01-2017 00:00:00 -6.48125 C 90.3090 % -7.8 C
524 07-01-2017 00:00:00 -4.20694 C 86.7674 % -6.08 C
525 08-01-2017 00:00:00 0.59306 C 95.4583 % -0.05 C
Sensor: Nr:Datum:Temp:Feuchte:Taupunkt:
Aussen-T/F 526 09-01-2017 00:00:00 2.15 C 93.8819 % 1.27 C
527 10-01-2017 00:00:00 1.40799 C 95.5625 % 0.78 C
528 11-01-2017 00:00:00 3.72639 C 93.5799 % 2.79 C
529 12-01-2017 00:00:00 4.3066 C 88.2396 % 2.54 C
530 13-01-2017 00:00:00 2.18576 C 91.4097 % 0.94 C
531 14-01-2017 00:00:00 2.66806 C 85.3611 % 0.46 C
532 15-01-2017 00:00:00 0.83819 C 92.1910 % -0.28 C
533 16-01-2017 00:00:00 -1.62361 C 93.6910 % -2.5 C
534 17-01-2017 00:00:00 -3.91493 C 91.1875 % -5.14 C
535 18-01-2017 00:00:00 -5.38646 C 91.6875 % -6.52 C
536 19-01-2017 00:00:00 -6.17292 C 92.2153 % -7.23 C
537 20-01-2017 00:00:00 -6.54167 C 91.1458 % -7.74 C
538 21-01-2017 00:00:00 -5.94167 C 92.0660 % -7.02 C
539 22-01-2017 00:00:00 -7.48889 C 92.6806 % -8.47 C
540 23-01-2017 00:00:00 -5.41458 C 93.0035 % -6.36 C
541 24-01-2017 00:00:00 -0.75035 C 91.2257 % -2 C
542 25-01-2017 00:00:00 -1.16701 C 83.8021 % -3.55 C
543 26-01-2017 00:00:00 -1.71667 C 84.5069 % -3.98 C
544 27-01-2017 00:00:00 -3.44306 C 90.2188 % -4.81 C
545 28-01-2017 00:00:00 -1.90347 C 90.7083 % -3.22 C
546 29-01-2017 00:00:00 2.8691 C 91.9722 % 1.7 C
547 30-01-2017 00:00:00 4.73507 C 94.6528 % 3.95 C
548 31-01-2017 00:00:00 3.29583 C 91.5174 % 2.05 C
549 01-02-2017 00:00:00 3.48611 C 87.9896 % 1.69 C
550 02-02-2017 00:00:00 5.1434 C 94.4132 % 4.32 C
Sensor: Nr:Datum:Temp:Feuchte:Taupunkt:
Aussen-T/F 551 03-02-2017 00:00:00 5.66007 C 94.2396 % 4.81 C
552 04-02-2017 00:00:00 6.00556 C 89.9549 % 4.49 C
553 05-02-2017 00:00:00 4.83993 C 91.1181 % 3.52 C
554 06-02-2017 00:00:00 3.82396 C 89.6493 % 2.28 C
555 07-02-2017 00:00:00 4.2184 C 89.5347 % 2.66 C
556 08-02-2017 00:00:00 2.98785 C 85.8160 % 0.85 C
557 09-02-2017 00:00:00 0.05903 C 84.0729 % -2.3 C
558 10-02-2017 00:00:00 0.67222 C 82.7813 % -1.91 C
559 11-02-2017 00:00:00 1.79896 C 93.6910 % 0.89 C
560 12-02-2017 00:00:00 2.74132 C 92.1215 % 1.59 C
561 13-02-2017 00:00:00 3.48576 C 82.9653 % 0.87 C
562 14-02-2017 00:00:00 1.66042 C 85.0833 % -0.57 C
563 15-02-2017 00:00:00 2.27639 C 90.1181 % 0.83 C
564 16-02-2017 00:00:00 4.06597 C 95.0382 % 3.34 C
565 17-02-2017 00:00:00 6.02222 C 95.7882 % 5.4 C
566 18-02-2017 00:00:00 5.94097 C 89.9375 % 4.42 C
567 19-02-2017 00:00:00 3.47083 C 91.4722 % 2.22 C
568 20-02-2017 00:00:00 8.45104 C 91.1111 % 7.09 C
569 21-02-2017 00:00:00 10.41458 C 92.1806 % 9.2 C
570 22-02-2017 00:00:00 11.10243 C 86.9167 % 9.01 C
571 23-02-2017 00:00:00 9.37708 C 82.3160 % 6.52 C
572 24-02-2017 00:00:00 5.21007 C 80.1215 % 2.07 C
573 25-02-2017 00:00:00 3.83993 C 84.8889 % 1.54 C
574 26-02-2017 00:00:00 8.62951 C 75.2188 % 4.5 C
575 27-02-2017 00:00:00 10.96042 C 73.1771 % 6.35 C
Sensor: Nr:Datum:Temp:Feuchte:Taupunkt:
Aussen-T/F 576 28-02-2017 00:00:00 5.79618 C 82.1285 % 2.99 C
577 01-03-2017 00:00:00 6.67257 C 86.8229 % 4.64 C
578 02-03-2017 00:00:00 8.27986 C 68.5764 % 2.85 C
579 03-03-2017 00:00:00 6.21771 C 76.6840 % 2.44 C
580 04-03-2017 00:00:00 10.95451 C 72.5382 % 6.22 C
581 05-03-2017 00:00:00 7.21354 C 86.9063 % 5.18 C
582 06-03-2017 00:00:00 6.48333 C 88.9306 % 4.79 C
583 07-03-2017 00:00:00 6.06806 C 92.0243 % 4.87 C
584 08-03-2017 00:00:00 5.01528 C 95.6597 % 4.38 C
585 09-03-2017 00:00:00 11.11146 C 85.3472 % 8.75 C
586 10-03-2017 00:00:00 7.4684 C 74.9896 % 3.33 C
587 11-03-2017 00:00:00 6.7316 C 76.7847 % 2.95 C
588 12-03-2017 00:00:00 6.62813 C 73.0590 % 2.15 C
589 13-03-2017 00:00:00 6.71007 C 76.5278 % 2.88 C
590 14-03-2017 00:00:00 9.45625 C 79.7708 % 6.14 C
591 15-03-2017 00:00:00 10.41493 C 79.8819 % 7.1 C
592 16-03-2017 00:00:00 8.32569 C 79.1250 % 4.93 C
593 17-03-2017 00:00:00 8.68507 C 77.3438 % 4.95 C
594 18-03-2017 00:00:00 9.53889 C 87.9514 % 7.64 C
595 19-03-2017 00:00:00 12.1559 C 84.9444 % 9.7 C
596 20-03-2017 00:00:00 11.60278 C 74.2986 % 7.19 C
597 21-03-2017 00:00:00 9.375 C 83.3090 % 6.69 C
598 22-03-2017 00:00:00 5.39132 C 87.9861 % 3.57 C
599 23-03-2017 00:00:00 8.8434 C 81.9097 % 5.93 C
600 24-03-2017 00:00:00 9.49444 C 76.3194 % 5.54 C
Sensor: Nr:Datum:Temp:Feuchte:Taupunkt:
Aussen-T/F 601 25-03-2017 00:00:00 9.21424 C 65.5590 % 3.11 C
602 26-03-2017 00:00:00 9.36594 C 63.8080 % 2.87 C
603 27-03-2017 00:00:00 8.83194 C 64.8194 % 2.59 C
604 28-03-2017 00:00:00 10.73819 C 69.2431 % 5.34 C
605 29-03-2017 00:00:00 12.89063 C 73.7014 % 8.31 C
606 30-03-2017 00:00:00 14.33507 C 72.3819 % 9.44 C
607 31-03-2017 00:00:00 13.69896 C 69.0938 % 8.14 C
608 01-04-2017 00:00:00 13.59792 C 71.9792 % 8.65 C
609 02-04-2017 00:00:00 11.71736 C 74.2222 % 7.29 C
610 03-04-2017 00:00:00 10.47257 C 76.1042 % 6.45 C
611 04-04-2017 00:00:00 9.3059 C 73.6285 % 4.85 C
612 05-04-2017 00:00:00 8.78889 C 75.9444 % 4.79 C
613 06-04-2017 00:00:00 8.65278 C 73.7292 % 4.23 C
614 07-04-2017 00:00:00 11.31566 C 70.4578 % 6.14 C
615 08-04-2017 00:00:00 14.59887 C 63.6780 % 7.8 C
616 09-04-2017 00:00:00 12.46215 C 72.6910 % 7.7 C
617 10-04-2017 00:00:00 10.93993 C 75.5174 % 6.79 C
618 11-04-2017 00:00:00 9.67188 C 68.7778 % 4.22 C
619 12-04-2017 00:00:00 11.34167 C 67.3993 % 5.53 C
620 13-04-2017 00:00:00 11.57153 C 68.3403 % 5.95 C
621 14-04-2017 00:00:00 9.77708 C 68.5660 % 4.28 C
622 15-04-2017 00:00:00 9.0875 C 81.6493 % 6.12 C
623 16-04-2017 00:00:00 7.52083 C 79.0590 % 4.13 C
624 17-04-2017 00:00:00 6.82257 C 84.8090 % 4.45 C
625 18-04-2017 00:00:00 5.52187 C 80.9167 % 2.51 C
Sensor: Nr:Datum:Temp:Feuchte:Taupunkt:
Aussen-T/F 626 19-04-2017 00:00:00 4.23646 C 70.6042 % -0.62 C
627 20-04-2017 00:00:00 4.68715 C 68.7882 % -0.54 C
628 21-04-2017 00:00:00 7.98299 C 70.7431 % 3 C
629 22-04-2017 00:00:00 9.60278 C 72.4063 % 4.89 C
630 23-04-2017 00:00:00 7.34722 C 68.6632 % 1.98 C
631 24-04-2017 00:00:00 8.25764 C 68.6424 % 2.84 C
632 25-04-2017 00:00:00 8.07118 C 68.6493 % 2.67 C
633 26-04-2017 00:00:00 7.03611 C 68.0208 % 1.55 C
634 27-04-2017 00:00:00 7.07917 C 67.6528 % 1.51 C
635 28-04-2017 00:00:00 6.15972 C 79.5104 % 2.89 C
636 29-04-2017 00:00:00 8.79132 C 71.5069 % 3.93 C
637 30-04-2017 00:00:00 11.04896 C 60.7951 % 3.78 C
638 01-05-2017 00:00:00 10.13576 C 85.0347 % 7.74 C
639 02-05-2017 00:00:00 9.00868 C 95.4549 % 8.32 C
640 03-05-2017 00:00:00 10.15694 C 90.6042 % 8.69 C
641 04-05-2017 00:00:00 11.64722 C 89.7361 % 10.02 C
642 05-05-2017 00:00:00 11.58021 C 81.0417 % 8.44 C
643 06-05-2017 00:00:00 12.91042 C 78.0139 % 9.17 C
644 07-05-2017 00:00:00 13.1434 C 93.6319 % 12.14 C
645 08-05-2017 00:00:00 9.64306 C 86.9063 % 7.57 C
646 09-05-2017 00:00:00 9.69931 C 70.4861 % 4.6 C
647 10-05-2017 00:00:00 10.29583 C 70.5590 % 5.19 C
648 11-05-2017 00:00:00 14.23542 C 73.0590 % 9.48 C
649 12-05-2017 00:00:00 15.89479 C 85.6250 % 13.49 C
650 13-05-2017 00:00:00 17.24514 C 75.3472 % 12.85 C
Sensor: Nr:Datum:Temp:Feuchte:Taupunkt:
Aussen-T/F 651 14-05-2017 00:00:00 16.17049 C 80.8993 % 12.89 C
652 15-05-2017 00:00:00 15.43403 C 72.0104 % 10.42 C
653 16-05-2017 00:00:00 18.86458 C 61.2049 % 11.24 C
654 17-05-2017 00:00:00 20.20243 C 65.0521 % 13.43 C
655 18-05-2017 00:00:00 17.96042 C 84.5729 % 15.32 C
656 19-05-2017 00:00:00 13.45694 C 96.0694 % 12.84 C
657 20-05-2017 00:00:00 12.04375 C 83.9931 % 9.43 C
658 21-05-2017 00:00:00 13.43889 C 75.2118 % 9.14 C
659 22-05-2017 00:00:00 16.05417 C 73.8090 % 11.39 C
660 23-05-2017 00:00:00 18.46736 C 69.4410 % 12.78 C
661 24-05-2017 00:00:00 16.81771 C 73.7639 % 12.11 C
662 25-05-2017 00:00:00 18.59167 C 70.2604 % 13.07 C
663 26-05-2017 00:00:00 18.71042 C 70.8472 % 13.31 C
664 27-05-2017 00:00:00 21.17049 C 66.6285 % 14.72 C
665 28-05-2017 00:00:00 21.21493 C 78.3993 % 17.31 C
666 29-05-2017 00:00:00 23.54271 C 75.5660 % 18.97 C
667 30-05-2017 00:00:00 21.97847 C 74.9549 % 17.33 C
668 31-05-2017 00:00:00 18.61667 C 68.5278 % 12.72 C
669 01-06-2017 00:00:00 18.99792 C 71.5590 % 13.74 C
670 02-06-2017 00:00:00 19.04583 C 83.6771 % 16.22 C
671 03-06-2017 00:00:00 18.89236 C 93.4132 % 17.81 C
672 04-06-2017 00:00:00 16.44306 C 84.5556 % 13.83 C
673 05-06-2017 00:00:00 16.50278 C 76.9792 % 12.46 C
674 06-06-2017 00:00:00 15.18958 C 77.8750 % 11.36 C
675 07-06-2017 00:00:00 13.87778 C 75.5347 % 9.63 C
Sensor: Nr:Datum:Temp:Feuchte:Taupunkt:
Aussen-T/F 676 08-06-2017 00:00:00 18.08924 C 68.5382 % 12.21 C
677 09-06-2017 00:00:00 16.93299 C 81.6319 % 13.77 C
678 10-06-2017 00:00:00 17.78368 C 70.4792 % 12.35 C
679 11-06-2017 00:00:00 20.38229 C 71.8993 % 15.15 C
680 12-06-2017 00:00:00 20.21667 C 59.4410 % 12.07 C
681 13-06-2017 00:00:00 17.4059 C 67.4549 % 11.32 C
682 14-06-2017 00:00:00 18.66597 C 69.6042 % 13 C
683 15-06-2017 00:00:00 21.18299 C 70.3333 % 15.57 C
684 16-06-2017 00:00:00 18.97743 C 62.8646 % 11.75 C
685 17-06-2017 00:00:00 17.05035 C 76.4444 % 12.88 C
686 18-06-2017 00:00:00 21.54514 C 69.8229 % 15.8 C
687 19-06-2017 00:00:00 22.06667 C 64.3160 % 15.02 C
688 20-06-2017 00:00:00 23.55069 C 62.5590 % 15.99 C
689 21-06-2017 00:00:00 25.2191 C 62.1146 % 17.45 C
690 22-06-2017 00:00:00 23.325 C 77.8264 % 19.23 C
691 23-06-2017 00:00:00 22.47014 C 68.4063 % 16.36 C
692 24-06-2017 00:00:00 20.09028 C 64.8924 % 13.28 C
693 25-06-2017 00:00:00 20.12639 C 70.0938 % 14.51 C
694 26-06-2017 00:00:00 21.1184 C 67.1667 % 14.79 C
695 27-06-2017 00:00:00 18.80104 C 85.3229 % 16.29 C
696 28-06-2017 00:00:00 19.80208 C 90.8299 % 18.26 C
697 29-06-2017 00:00:00 17.97535 C 86.2396 % 15.64 C
698 30-06-2017 00:00:00 17.41624 C 77.3875 % 13.42 C
699 01-07-2017 00:00:00 16.45451 C 89.6250 % 14.74 C
700 02-07-2017 00:00:00 16.87188 C 88.2361 % 14.91 C
Sensor: Nr:Datum:Temp:Feuchte:Taupunkt:
Aussen-T/F 701 03-07-2017 00:00:00 17.94201 C 72.9201 % 13.02 C
702 04-07-2017 00:00:00 19.98993 C 68.9375 % 14.12 C
703 05-07-2017 00:00:00 21.5875 C 69.0903 % 15.68 C
704 06-07-2017 00:00:00 21.41701 C 76.5278 % 17.12 C
705 07-07-2017 00:00:00 23.46076 C 73.7674 % 18.51 C
706 08-07-2017 00:00:00 22.5559 C 70.5035 % 16.92 C
707 09-07-2017 00:00:00 22.69271 C 74.1007 % 17.84 C
708 10-07-2017 00:00:00 19.75243 C 93.9792 % 18.76 C
709 11-07-2017 00:00:00 19.33264 C 81.8993 % 16.16 C
710 12-07-2017 00:00:00 17.22951 C 89.4514 % 15.48 C
711 13-07-2017 00:00:00 15.53958 C 75.6667 % 11.26 C
712 14-07-2017 00:00:00 16.34653 C 77.4965 % 12.41 C
713 15-07-2017 00:00:00 16.46389 C 74.5417 % 11.93 C
714 16-07-2017 00:00:00 19.03924 C 81.1215 % 15.73 C
715 17-07-2017 00:00:00 20.61007 C 81.2743 % 17.29 C
716 18-07-2017 00:00:00 21.7625 C 75.4965 % 17.24 C
717 19-07-2017 00:00:00 23.46806 C 73.3090 % 18.42 C
718 20-07-2017 00:00:00 21.83889 C 79.5764 % 18.15 C
719 21-07-2017 00:00:00 20.14583 C 71.6979 % 14.88 C
720 22-07-2017 00:00:00 21.77813 C 82.2743 % 18.62 C
721 23-07-2017 00:00:00 18.27639 C 78.7153 % 14.52 C
722 24-07-2017 00:00:00 14.9816 C 91.3681 % 13.59 C
723 25-07-2017 00:00:00 14.46979 C 96.2014 % 13.87 C
724 26-07-2017 00:00:00 17.50729 C 86.0139 % 15.14 C
725 27-07-2017 00:00:00 18.9184 C 89.6250 % 17.18 C
Sensor: Nr:Datum:Temp:Feuchte:Taupunkt:
Aussen-T/F 726 28-07-2017 00:00:00 17.14236 C 83.5694 % 14.34 C
727 29-07-2017 00:00:00 20.44271 C 81.0174 % 17.07 C
728 30-07-2017 00:00:00 22.74236 C 73.6667 % 17.8 C
729 31-07-2017 00:00:00 20.73542 C 77.8750 % 16.74 C
730 01-08-2017 00:00:00 19.90799 C 94.6424 % 19.02 C
731 02-08-2017 00:00:00 21.09306 C 86.4688 % 18.75 C
732 03-08-2017 00:00:00 21.32153 C 83.4271 % 18.4 C
733 04-08-2017 00:00:00 20.4309 C 76.2500 % 16.11 C
734 05-08-2017 00:00:00 18.99826 C 79.7326 % 15.42 C
735 06-08-2017 00:00:00 17.06181 C 74.4028 % 12.48 C
736 07-08-2017 00:00:00 17.21319 C 74.5313 % 12.65 C
737 08-08-2017 00:00:00 17.34063 C 86.7500 % 15.11 C
738 09-08-2017 00:00:00 17.64167 C 77.9826 % 13.76 C
739 10-08-2017 00:00:00 15.45139 C 94.6771 % 14.6 C
740 11-08-2017 00:00:00 14.99271 C 95.3889 % 14.26 C
741 12-08-2017 00:00:00 15.39965 C 94.4688 % 14.52 C
742 13-08-2017 00:00:00 18.25694 C 84.2813 % 15.56 C
743 14-08-2017 00:00:00 18.07396 C 87.2535 % 15.92 C
744 15-08-2017 00:00:00 18.78299 C 93.5243 % 17.72 C
745 16-08-2017 00:00:00 19.80486 C 87.2847 % 17.63 C
746 17-08-2017 00:00:00 19.18438 C 87.3125 % 17.02 C
747 18-08-2017 00:00:00 18.28819 C 94.1632 % 17.33 C
748 19-08-2017 00:00:00 14.62049 C 90.6076 % 13.1 C
749 20-08-2017 00:00:00 14.85243 C 86.3993 % 12.6 C
750 21-08-2017 00:00:00 15.85833 C 82.2049 % 12.83 C
Sensor: Nr:Datum:Temp:Feuchte:Taupunkt:
Aussen-T/F 751 22-08-2017 00:00:00 15.7316 C 84.9097 % 13.2 C
752 23-08-2017 00:00:00 17.82812 C 84.2535 % 15.14 C
753 24-08-2017 00:00:00 19.30625 C 82.1632 % 16.19 C
754 25-08-2017 00:00:00 18.12049 C 89.3993 % 16.35 C
755 26-08-2017 00:00:00 20.59861 C 92.9132 % 19.41 C
756 27-08-2017 00:00:00 19.43507 C 89.5035 % 17.66 C
757 28-08-2017 00:00:00 19.49063 C 85.7882 % 17.05 C
758 29-08-2017 00:00:00 19.97986 C 86.3507 % 17.63 C
759 30-08-2017 00:00:00 20.58819 C 89.0903 % 18.73 C
760 31-08-2017 00:00:00 17.03194 C 87.1493 % 14.88 C
761 01-09-2017 00:00:00 13.72639 C 88.3785 % 11.84 C
762 02-09-2017 00:00:00 14.2625 C 89.4271 % 12.55 C
763 03-09-2017 00:00:00 13.22257 C 87.7743 % 11.24 C
764 04-09-2017 00:00:00 13.75208 C 90.0313 % 12.15 C
765 05-09-2017 00:00:00 17.85347 C 90.3160 % 16.25 C
766 06-09-2017 00:00:00 17.36389 C 78.5868 % 13.61 C
767 07-09-2017 00:00:00 15.38472 C 80.6389 % 12.08 C
768 08-09-2017 00:00:00 15.88958 C 80.7917 % 12.6 C
769 09-09-2017 00:00:00 14.59236 C 91.5764 % 13.24 C
770 10-09-2017 00:00:00 13.23924 C 88.7951 % 11.43 C
771 11-09-2017 00:00:00 14.41667 C 84.9861 % 11.93 C
772 12-09-2017 00:00:00 14.27674 C 84.4097 % 11.69 C
773 13-09-2017 00:00:00 14.43993 C 87.5729 % 12.4 C
774 14-09-2017 00:00:00 11.98194 C 92.1076 % 10.74 C
775 15-09-2017 00:00:00 12.37917 C 88.0347 % 10.46 C
Sensor: Nr:Datum:Temp:Feuchte:Taupunkt:
Aussen-T/F 776 16-09-2017 00:00:00 10.41007 C 88.3021 % 8.56 C
777 17-09-2017 00:00:00 9.97118 C 94.9861 % 9.21 C
778 18-09-2017 00:00:00 10.50764 C 90.8785 % 9.08 C
779 19-09-2017 00:00:00 11.95903 C 92.7049 % 10.82 C
780 20-09-2017 00:00:00 11.3184 C 92.6076 % 10.17 C
781 21-09-2017 00:00:00 10.7559 C 92.2222 % 9.55 C
782 22-09-2017 00:00:00 11.39757 C 92.7222 % 10.26 C
783 23-09-2017 00:00:00 13.63785 C 89.4965 % 11.94 C
784 24-09-2017 00:00:00 12.54826 C 93.5660 % 11.54 C
785 25-09-2017 00:00:00 12.85729 C 92.9514 % 11.75 C
786 26-09-2017 00:00:00 13.54097 C 92.1389 % 12.29 C
787 27-09-2017 00:00:00 13.15069 C 94.1597 % 12.23 C
788 28-09-2017 00:00:00 14.79861 C 93.9063 % 13.83 C
789 29-09-2017 00:00:00 17.64722 C 91.7083 % 16.28 C
790 30-09-2017 00:00:00 14.56597 C 95.2326 % 13.81 C
791 01-10-2017 00:00:00 11.45937 C 95.0451 % 10.69 C
792 02-10-2017 00:00:00 14.42951 C 92.9132 % 13.3 C
793 03-10-2017 00:00:00 12.49618 C 88.9201 % 10.72 C
794 04-10-2017 00:00:00 11.37812 C 88.0972 % 9.48 C
795 05-10-2017 00:00:00 12.35868 C 85.7847 % 10.05 C
796 06-10-2017 00:00:00 9.83438 C 91.6285 % 8.54 C
797 07-10-2017 00:00:00 10.24653 C 89.7535 % 8.64 C
798 08-10-2017 00:00:00 11.93993 C 93.6181 % 10.94 C
799 09-10-2017 00:00:00 11.42222 C 93.6285 % 10.43 C
800 10-10-2017 00:00:00 13.19062 C 93.1424 % 12.11 C
Sensor: Nr:Datum:Temp:Feuchte:Taupunkt:
Aussen-T/F 801 11-10-2017 00:00:00 13.59722 C 90.6111 % 12.09 C
802 12-10-2017 00:00:00 13.7684 C 84.9618 % 11.29 C
803 13-10-2017 00:00:00 14.15556 C 91.8646 % 12.85 C
804 14-10-2017 00:00:00 13.13611 C 95.3750 % 12.41 C
805 15-10-2017 00:00:00 12.53021 C 95.9410 % 11.9 C
806 16-10-2017 00:00:00 13.45347 C 95.6215 % 12.77 C
807 17-10-2017 00:00:00 13.09201 C 95.8299 % 12.44 C
808 18-10-2017 00:00:00 12.20313 C 95.8264 % 11.56 C
809 19-10-2017 00:00:00 11.5059 C 95.8472 % 10.87 C
810 20-10-2017 00:00:00 10.5122 C 88.5610 % 8.71 C
811 21-10-2017 00:00:00 11.76076 C 91.4410 % 10.41 C
812 22-10-2017 00:00:00 10.78507 C 85.4340 % 8.44 C
813 23-10-2017 00:00:00 10.79653 C 87.4826 % 8.8 C
814 24-10-2017 00:00:00 13.69826 C 91.2465 % 12.3 C
815 25-10-2017 00:00:00 15.51111 C 87.4271 % 13.43 C
816 26-10-2017 00:00:00 13.26736 C 91.1389 % 11.85 C
817 27-10-2017 00:00:00 11.49132 C 89.5660 % 9.84 C
818 28-10-2017 00:00:00 10.36076 C 83.1944 % 7.64 C
819 29-10-2017 00:00:00 10.65694 C 82.5243 % 7.81 C
820 30-10-2017 00:00:00 7.17326 C 85.5243 % 4.91 C
821 31-10-2017 00:00:00 7.26806 C 85.6944 % 5.04 C
822 01-11-2017 00:00:00 8.73021 C 85.5313 % 6.44 C
823 02-11-2017 00:00:00 8.66389 C 87.8333 % 6.76 C
824 03-11-2017 00:00:00 7.17014 C 93.6285 % 6.21 C
825 04-11-2017 00:00:00 8.34132 C 94.7292 % 7.55 C
Sensor: Nr:Datum:Temp:Feuchte:Taupunkt:
Aussen-T/F 826 05-11-2017 00:00:00 8.89965 C 92.2083 % 7.71 C
827 06-11-2017 00:00:00 5.51424 C 92.8542 % 4.45 C
828 07-11-2017 00:00:00 4.45868 C 95.0833 % 3.74 C
829 08-11-2017 00:00:00 6.63854 C 96.5035 % 6.12 C
830 09-11-2017 00:00:00 7.54028 C 95.7569 % 6.91 C
831 10-11-2017 00:00:00 7.46563 C 90.7535 % 6.06 C
832 11-11-2017 00:00:00 6.4559 C 93.8090 % 5.53 C
833 12-11-2017 00:00:00 4.6809 C 96.1632 % 4.12 C
834 13-11-2017 00:00:00 5.61111 C 92.8125 % 4.54 C
835 14-11-2017 00:00:00 4.67951 C 94.3785 % 3.86 C
836 15-11-2017 00:00:00 6.91389 C 90.0799 % 5.4 C
837 16-11-2017 00:00:00 4.84201 C 93.1424 % 3.83 C
838 17-11-2017 00:00:00 6.01007 C 95.7535 % 5.38 C
839 18-11-2017 00:00:00 3.55278 C 91.3403 % 2.28 C
840 19-11-2017 00:00:00 5.66389 C 89.5764 % 4.09 C
841 20-11-2017 00:00:00 5.24618 C 91.6250 % 4 C
842 21-11-2017 00:00:00 9.24063 C 90.6597 % 7.79 C
843 22-11-2017 00:00:00 8.26528 C 88.1146 % 6.42 C
844 23-11-2017 00:00:00 9.3059 C 88.0486 % 7.43 C
845 24-11-2017 00:00:00 10.45451 C 92.4028 % 9.28 C
846 25-11-2017 00:00:00 5.3059 C 95.5521 % 4.65 C
847 26-11-2017 00:00:00 3.77986 C 88.7986 % 2.11 C
848 27-11-2017 00:00:00 5.66632 C 87.1875 % 3.71 C
849 28-11-2017 00:00:00 4.26181 C 94.5347 % 3.46 C
850 29-11-2017 00:00:00 3.03576 C 95.4618 % 2.38 C
Sensor: Nr:Datum:Temp:Feuchte:Taupunkt:
Aussen-T/F 851 30-11-2017 00:00:00 2.44201 C 95.3958 % 1.78 C
852 01-12-2017 00:00:00 1.13021 C 95.6389 % 0.51 C
853 02-12-2017 00:00:00 0.97604 C 94.2361 % 0.16 C
854 03-12-2017 00:00:00 0.67674 C 93.3958 % -0.26 C
855 04-12-2017 00:00:00 3.2816 C 95.5799 % 2.64 C
856 05-12-2017 00:00:00 4.74826 C 93.4792 % 3.79 C
857 06-12-2017 00:00:00 5.89792 C 90.1493 % 4.41 C
858 07-12-2017 00:00:00 4.77986 C 86.2465 % 2.68 C
859 08-12-2017 00:00:00 3.52014 C 88.7153 % 1.84 C
860 09-12-2017 00:00:00 1.27569 C 83.4618 % -1.21 C
861 10-12-2017 00:00:00 2.40903 C 88.7049 % 0.74 C
862 11-12-2017 00:00:00 6.02118 C 93.7708 % 5.1 C
863 12-12-2017 00:00:00 3.72292 C 84.9792 % 1.44 C
864 13-12-2017 00:00:00 3.81597 C 89.6875 % 2.28 C
865 14-12-2017 00:00:00 4.58611 C 90.0625 % 3.1 C
866 15-12-2017 00:00:00 2.98611 C 95.5903 % 2.35 C
867 16-12-2017 00:00:00 3.04167 C 95.9618 % 2.46 C
868 17-12-2017 00:00:00 3.05208 C 92.1076 % 1.9 C
869 18-12-2017 00:00:00 1.66944 C 95.4444 % 1.02 C
870 19-12-2017 00:00:00 3.35556 C 97.1146 % 2.94 C
871 20-12-2017 00:00:00 5.65625 C 97.6389 % 5.31 C
872 21-12-2017 00:00:00 7.51667 C 97.5556 % 7.16 C
873 22-12-2017 00:00:00 8.8125 C 97.8889 % 8.5 C
874 23-12-2017 00:00:00 8.76389 C 93.7813 % 7.82 C
875 24-12-2017 00:00:00 8.92292 C 88.6319 % 7.15 C
Sensor: Nr:Datum:Temp:Feuchte:Taupunkt:
Aussen-T/F 876 25-12-2017 00:00:00 6.77708 C 85.7292 % 4.56 C
877 26-12-2017 00:00:00 4.68299 C 90.7431 % 3.3 C
878 27-12-2017 00:00:00 5.13993 C 92.8854 % 4.09 C
879 28-12-2017 00:00:00 3.24826 C 88.2396 % 1.49 C
880 29-12-2017 00:00:00 2.41944 C 88.1667 % 0.67 C
881 30-12-2017 00:00:00 7.77187 C 90.7882 % 6.36 C
882 31-12-2017 00:00:00 12.74549 C 82.5729 % 9.86 C
883 01-01-2018 00:00:00 7.71458 C 84.2153 % 5.22 C
884 02-01-2018 00:00:00 6.21076 C 88.1979 % 4.41 C
885 03-01-2018 00:00:00 8.40313 C 84.5174 % 5.95 C
886 04-01-2018 00:00:00 8.24792 C 89.7014 % 6.66 C
887 05-01-2018 00:00:00 8.32257 C 89.6424 % 6.72 C
888 06-01-2018 00:00:00 6.22188 C 96.7917 % 5.75 C
889 07-01-2018 00:00:00 5.11458 C 92.0417 % 3.93 C
890 08-01-2018 00:00:00 4.61597 C 89.1007 % 2.98 C
891 09-01-2018 00:00:00 5.0191 C 93.0521 % 3.99 C
892 10-01-2018 00:00:00 6.95243 C 92.3472 % 5.8 C
893 11-01-2018 00:00:00 6.99653 C 95.0660 % 6.26 C
894 12-01-2018 00:00:00 6.57708 C 95.7674 % 5.95 C
895 13-01-2018 00:00:00 5.39062 C 89.7813 % 3.85 C
896 14-01-2018 00:00:00 2.95174 C 85.5208 % 0.77 C
897 15-01-2018 00:00:00 3.65833 C 91.1181 % 2.35 C
898 16-01-2018 00:00:00 6.14618 C 85.7569 % 3.94 C
899 17-01-2018 00:00:00 3.45868 C 86.7569 % 1.47 C
900 18-01-2018 00:00:00 5.94167 C 81.9479 % 3.1 C
Sensor: Nr:Datum:Temp:Feuchte:Taupunkt:
Aussen-T/F 901 19-01-2018 00:00:00 3.96146 C 86.6771 % 1.95 C
902 20-01-2018 00:00:00 3.05937 C 91.0486 % 1.74 C
903 21-01-2018 00:00:00 2.72951 C 93.5451 % 1.8 C
904 22-01-2018 00:00:00 5.11563 C 93.7708 % 4.2 C
905 23-01-2018 00:00:00 7.37049 C 88.6250 % 5.62 C
906 24-01-2018 00:00:00 11.38021 C 86.3785 % 9.19 C
907 25-01-2018 00:00:00 9.87465 C 92.0243 % 8.64 C
908 26-01-2018 00:00:00 6.62222 C 95.7396 % 5.99 C
909 27-01-2018 00:00:00 4.73299 C 95.1771 % 4.03 C
910 28-01-2018 00:00:00 7.29028 C 89.6285 % 5.7 C
911 29-01-2018 00:00:00 9.82882 C 85.7674 % 7.56 C
912 30-01-2018 00:00:00 5.41111 C 90.5104 % 3.99 C
913 31-01-2018 00:00:00 7.52153 C 91.0938 % 6.16 C
914 01-02-2018 00:00:00 3.10243 C 90.1632 % 1.65 C
915 02-02-2018 00:00:00 3.41285 C 90.8958 % 2.07 C
916 03-02-2018 00:00:00 3.47118 C 87.7292 % 1.63 C
917 04-02-2018 00:00:00 1.1434 C 87.0208 % -0.77 C
918 05-02-2018 00:00:00 0.32431 C 82.9236 % -2.23 C
919 06-02-2018 00:00:00 -0.78056 C 89.0174 % -2.36 C
920 07-02-2018 00:00:00 -0.06111 C 91.5799 % -1.26 C
921 08-02-2018 00:00:00 -2.18819 C 88.7396 % -3.79 C
922 09-02-2018 00:00:00 -1.96007 C 92.3854 % -3.03 C
923 10-02-2018 00:00:00 2.22257 C 88.0660 % 0.46 C
924 11-02-2018 00:00:00 3.32535 C 86.3333 % 1.27 C
925 12-02-2018 00:00:00 2.1059 C 85.9479 % 0.01 C
Sensor: Nr:Datum:Temp:Feuchte:Taupunkt:
Aussen-T/F 926 13-02-2018 00:00:00 -0.32674 C 85.2257 % -2.5 C
927 14-02-2018 00:00:00 -1.52222 C 83.5069 % -3.95 C
928 15-02-2018 00:00:00 1.83299 C 89.2535 % 0.26 C
929 16-02-2018 00:00:00 2.01597 C 96.2500 % 1.48 C
930 17-02-2018 00:00:00 0.40521 C 93.6354 % -0.5 C
931 18-02-2018 00:00:00 -1.01701 C 92.6701 % -2.05 C
932 19-02-2018 00:00:00 1.11667 C 88.7049 % -0.53 C
933 20-02-2018 00:00:00 0.74271 C 87.0313 % -1.16 C
934 21-02-2018 00:00:00 1.21181 C 77.1493 % -2.34 C
935 22-02-2018 00:00:00 -0.03507 C 74.0938 % -4.09 C
936 23-02-2018 00:00:00 -0.725 C 62.2674 % -7.03 C
937 24-02-2018 00:00:00 -1.57049 C 63.0625 % -7.67 C
938 25-02-2018 00:00:00 -2.70729 C 52.6701 % -11.03 C
939 26-02-2018 00:00:00 -4.18854 C 66.9375 % -9.4 C
940 27-02-2018 00:00:00 -6.00417 C 70.8264 % -10.43 C
941 28-02-2018 00:00:00 -6.7066 C 65.9757 % -11.99 C
942 01-03-2018 00:00:00 -2.91424 C 54.5035 % -10.79 C
943 02-03-2018 00:00:00 -2.40208 C 62.9826 % -8.48 C
944 03-03-2018 00:00:00 -0.40937 C 89.6736 % -1.89 C
945 04-03-2018 00:00:00 4.02986 C 90.9965 % 2.7 C
946 05-03-2018 00:00:00 5.96979 C 85.9965 % 3.81 C
947 06-03-2018 00:00:00 4.90694 C 86.9583 % 2.92 C
948 07-03-2018 00:00:00 5.39792 C 90.0556 % 3.9 C
949 08-03-2018 00:00:00 6.19653 C 83.8368 % 3.67 C
950 09-03-2018 00:00:00 5.56528 C 93.9514 % 4.67 C
Sensor: Nr:Datum:Temp:Feuchte:Taupunkt:
Aussen-T/F 951 10-03-2018 00:00:00 10.03125 C 92.4792 % 8.87 C
952 11-03-2018 00:00:00 10.51493 C 91.3854 % 9.17 C
953 12-03-2018 00:00:00 9.7 C 90.2813 % 8.19 C
954 13-03-2018 00:00:00 7.76667 C 88.1215 % 5.93 C
955 14-03-2018 00:00:00 6.86458 C 83.6076 % 4.29 C
956 15-03-2018 00:00:00 6.40382 C 83.6319 % 3.84 C
957 16-03-2018 00:00:00 7.64097 C 94.7813 % 6.86 C
958 17-03-2018 00:00:00 -0.44516 C 83.0573 % -2.96 C
959 18-03-2018 00:00:00 -1.64028 C 75.3299 % -5.42 C
960 19-03-2018 00:00:00 -0.54479 C 65.7778 % -6.15 C
961 20-03-2018 00:00:00 0.29653 C 73.5035 % -3.87 C
962 21-03-2018 00:00:00 1.2059 C 76.4132 % -2.47 C
963 22-03-2018 00:00:00 3.06319 C 89.6667 % 1.54 C
964 23-03-2018 00:00:00 6.14028 C 89.0799 % 4.48 C
965 24-03-2018 00:00:00 5.20069 C 79.8715 % 2.02 C
966 25-03-2018 00:00:00 5.42862 C 76.5217 % 1.64 C
967 26-03-2018 00:00:00 7.61146 C 73.0313 % 3.1 C
968 27-03-2018 00:00:00 5.82222 C 83.6181 % 3.27 C
969 28-03-2018 00:00:00 8.50799 C 92.0278 % 7.29 C
970 29-03-2018 00:00:00 7.11424 C 75.6701 % 3.12 C
971 30-03-2018 00:00:00 6.82813 C 81.6910 % 3.92 C
972 31-03-2018 00:00:00 8.09792 C 78.7083 % 4.63 C
973 01-04-2018 00:00:00 7.66979 C 81.5451 % 4.72 C
974 02-04-2018 00:00:00 8.78611 C 74.8715 % 4.58 C
975 03-04-2018 00:00:00 13.35 C 67.7257 % 7.51 C
Sensor: Nr:Datum:Temp:Feuchte:Taupunkt:
Aussen-T/F 976 04-04-2018 00:00:00 11.17187 C 85.0486 % 8.76 C
977 05-04-2018 00:00:00 8.16042 C 84.2049 % 5.66 C
978 06-04-2018 00:00:00 6.97187 C 72.9167 % 2.46 C
979 07-04-2018 00:00:00 12.50035 C 66.5174 % 6.44 C
980 08-04-2018 00:00:00 14.90417 C 67.3368 % 8.91 C
981 09-04-2018 00:00:00 13.73333 C 72.7188 % 8.93 C
982 10-04-2018 00:00:00 13.3816 C 78.1875 % 9.66 C
983 11-04-2018 00:00:00 11.50035 C 87.5035 % 9.5 C
984 12-04-2018 00:00:00 13.06493 C 80.5000 % 9.79 C
985 13-04-2018 00:00:00 10.32188 C 88.1458 % 8.45 C
986 14-04-2018 00:00:00 13.08403 C 76.3056 % 9.01 C
987 15-04-2018 00:00:00 14.37465 C 81.8542 % 11.32 C
988 16-04-2018 00:00:00 13.42882 C 78.5417 % 9.78 C
989 17-04-2018 00:00:00 13.72569 C 74.7569 % 9.33 C
990 18-04-2018 00:00:00 15.73264 C 69.7882 % 10.23 C
991 19-04-2018 00:00:00 17.21806 C 66.2847 % 10.88 C
992 20-04-2018 00:00:00 17.08681 C 67.8229 % 11.1 C
993 21-04-2018 00:00:00 18.09931 C 71.2639 % 12.82 C
994 22-04-2018 00:00:00 18.53681 C 73.1042 % 13.63 C
995 23-04-2018 00:00:00 18.01181 C 70.6181 % 12.6 C
996 24-04-2018 00:00:00 14.03854 C 72.5938 % 9.2 C
997 25-04-2018 00:00:00 13.47917 C 75.5694 % 9.25 C
998 26-04-2018 00:00:00 11.09167 C 65.0868 % 4.79 C
999 27-04-2018 00:00:00 11.96181 C 67.8333 % 6.21 C
1000 28-04-2018 00:00:00 12.62917 C 72.8854 % 7.9 C
Sensor: Nr:Datum:Temp:Feuchte:Taupunkt:
Aussen-T/F 1001 29-04-2018 00:00:00 14.24792 C 85.8194 % 11.91 C
1002 30-04-2018 00:00:00 13.44931 C 77.7604 % 9.65 C
1003 01-05-2018 00:00:00 9.59063 C 69.6354 % 4.32 C
1004 02-05-2018 00:00:00 9.44549 C 75.6910 % 5.38 C
1005 03-05-2018 00:00:00 12.35347 C 68.5729 % 6.74 C
1006 04-05-2018 00:00:00 13.14618 C 65.4722 % 6.83 C
1007 05-05-2018 00:00:00 15.50764 C 61.2708 % 8.09 C
1008 06-05-2018 00:00:00 17.0059 C 57.6563 % 8.6 C
1009 07-05-2018 00:00:00 17.60312 C 61.7674 % 10.19 C
1010 08-05-2018 00:00:00 18.08264 C 62.5556 % 10.83 C
1011 09-05-2018 00:00:00 17.125 C 71.3160 % 11.89 C
1012 10-05-2018 00:00:00 14.09271 C 87.0729 % 11.98 C
1013 11-05-2018 00:00:00 14.47951 C 77.2778 % 10.55 C
1014 12-05-2018 00:00:00 16.39236 C 75.1597 % 11.99 C
1015 13-05-2018 00:00:00 14.62278 C 93.1317 % 13.53 C
1016 14-05-2018 00:00:00 16.77361 C 89.0556 % 14.96 C
1017 15-05-2018 00:00:00 15.91597 C 75.1875 % 11.53 C
1018 16-05-2018 00:00:00 15.4941 C 83.2118 % 12.66 C
1019 17-05-2018 00:00:00 13.78333 C 73.6285 % 9.16 C
1020 18-05-2018 00:00:00 12.14792 C 74.4757 % 7.75 C
1021 19-05-2018 00:00:00 13.63299 C 73.7118 % 9.03 C
1022 20-05-2018 00:00:00 14.00278 C 84.2917 % 11.4 C
1023 21-05-2018 00:00:00 17.43819 C 78.1806 % 13.6 C
1024 22-05-2018 00:00:00 16.97917 C 82.6944 % 14.02 C
1025 23-05-2018 00:00:00 17.30243 C 88.5104 % 15.39 C
Sensor: Nr:Datum:Temp:Feuchte:Taupunkt:
Aussen-T/F 1026 24-05-2018 00:00:00 17.125 C 87.8507 % 15.1 C
1027 25-05-2018 00:00:00 19.81944 C 80.2535 % 16.32 C
1028 26-05-2018 00:00:00 20.84826 C 76.3958 % 16.54 C
1029 27-05-2018 00:00:00 20.3191 C 81.4236 % 17.03 C
1030 28-05-2018 00:00:00 21.47083 C 81.6424 % 18.2 C
1031 29-05-2018 00:00:00 20.77292 C 85.9514 % 18.34 C
1032 30-05-2018 00:00:00 21.53403 C 77.5799 % 17.45 C
1033 31-05-2018 00:00:00 22.62083 C 74.5313 % 17.86 C
1034 01-06-2018 00:00:00 19.10729 C 88.6667 % 17.19 C
1035 02-06-2018 00:00:00 19.22917 C 81.5243 % 15.99 C
1036 03-06-2018 00:00:00 19.42708 C 77.5903 % 15.41 C
1037 04-06-2018 00:00:00 20.95938 C 74.2257 % 16.2 C
1038 05-06-2018 00:00:00 20.70035 C 77.2569 % 16.58 C
1039 06-06-2018 00:00:00 21.09375 C 74.2222 % 16.33 C
1040 07-06-2018 00:00:00 21.15174 C 80.5868 % 17.68 C
1041 08-06-2018 00:00:00 20.94375 C 84.2361 % 18.18 C
1042 09-06-2018 00:00:00 21.9125 C 83.9896 % 19.08 C
1043 10-06-2018 00:00:00 21.38239 C 86.1831 % 18.98 C
1044 11-06-2018 00:00:00 19.19444 C 93.4549 % 18.11 C
1045 12-06-2018 00:00:00 16.41979 C 90.3194 % 14.83 C
1046 13-06-2018 00:00:00 14.8941 C 79.6285 % 11.41 C
1047 14-06-2018 00:00:00 14.94132 C 80.6806 % 11.65 C
1048 15-06-2018 00:00:00 17.84236 C 88.0243 % 15.83 C
1049 16-06-2018 00:00:00 19.99306 C 78.6493 % 16.17 C
1050 17-06-2018 00:00:00 17.94167 C 75.1979 % 13.49 C
Sensor: Nr:Datum:Temp:Feuchte:Taupunkt:
Aussen-T/F 1051 18-06-2018 00:00:00 17.81667 C 77.9757 % 13.93 C
1052 19-06-2018 00:00:00 18.89201 C 84.5799 % 16.24 C
1053 20-06-2018 00:00:00 23.07639 C 72.0069 % 17.75 C
1054 21-06-2018 00:00:00 17.92639 C 69.4514 % 12.26 C
1055 22-06-2018 00:00:00 13.74097 C 68.4549 % 8.04 C
1056 23-06-2018 00:00:00 13.76424 C 76.4514 % 9.7 C
1057 24-06-2018 00:00:00 15.88264 C 72.8299 % 11.02 C
1058 25-06-2018 00:00:00 17.09201 C 78.1806 % 13.26 C
1059 26-06-2018 00:00:00 17.67396 C 74.6806 % 13.13 C
1060 27-06-2018 00:00:00 19.15694 C 67.6979 % 13.05 C
1061 28-06-2018 00:00:00 20.71076 C 61.1806 % 12.97 C
1062 29-06-2018 00:00:00 24.11424 C 56.0451 % 14.8 C
1063 30-06-2018 00:00:00 22.06215 C 56.9201 % 13.13 C
1064 01-07-2018 00:00:00 20.86597 C 42.7396 % 7.74 C
1065 02-07-2018 00:00:00 20.44792 C 45.9861 % 8.44 C
1066 03-07-2018 00:00:00 20.73299 C 50.1319 % 9.98 C
1067 04-07-2018 00:00:00 18.84167 C 80.7778 % 15.47 C
1068 05-07-2018 00:00:00 19.41111 C 88.5799 % 17.48 C
1069 06-07-2018 00:00:00 20.03056 C 75.7014 % 15.61 C
1070 07-07-2018 00:00:00 20.66701 C 67.2326 % 14.38 C
1071 08-07-2018 00:00:00 19.71181 C 58.3160 % 11.3 C
1072 09-07-2018 00:00:00 19.32361 C 67.3299 % 13.12 C
1073 10-07-2018 00:00:00 17.13715 C 73.0729 % 12.28 C
1074 11-07-2018 00:00:00 16.10729 C 82.2396 % 13.08 C
1075 12-07-2018 00:00:00 19.59688 C 80.3924 % 16.13 C
Sensor: Nr:Datum:Temp:Feuchte:Taupunkt:
Aussen-T/F 1076 13-07-2018 00:00:00 19.71166 C 77.4240 % 15.65 C
1077 14-07-2018 00:00:00 21.51493 C 67.9236 % 15.34 C
1078 15-07-2018 00:00:00 21.63021 C 64.0521 % 14.54 C
1079 16-07-2018 00:00:00 22.30868 C 61.5347 % 14.56 C
1080 17-07-2018 00:00:00 21.01771 C 65.8507 % 14.39 C
1081 18-07-2018 00:00:00 20.29479 C 65.8750 % 13.71 C
1082 19-07-2018 00:00:00 20.92431 C 60.5069 % 13 C
1083 20-07-2018 00:00:00 21.5559 C 61.6319 % 13.88 C
1084 21-07-2018 00:00:00 20.6125 C 77.3958 % 16.52 C
1085 22-07-2018 00:00:00 21.61458 C 70.0486 % 15.92 C
1086 23-07-2018 00:00:00 22.37917 C 67.0868 % 15.97 C
1087 24-07-2018 00:00:00 23.70278 C 63.7465 % 16.43 C
1088 25-07-2018 00:00:00 25.50069 C 57.3160 % 16.44 C
1089 26-07-2018 00:00:00 27.18785 C 54.2326 % 17.14 C
1090 27-07-2018 00:00:00 26.11146 C 50.4861 % 15.03 C
1091 28-07-2018 00:00:00 21.97743 C 76.3924 % 17.63 C
1092 29-07-2018 00:00:00 23.50521 C 66.0451 % 16.8 C
1093 30-07-2018 00:00:00 24.29931 C 64.4410 % 17.16 C
1094 31-07-2018 00:00:00 25.46875 C 61.9722 % 17.65 C
1095 01-08-2018 00:00:00 20.74271 C 87.4931 % 18.59 C
1096 02-08-2018 00:00:00 23.73056 C 74.2257 % 18.87 C
1097 03-08-2018 00:00:00 26.4684 C 61.0278 % 18.34 C
1098 04-08-2018 00:00:00 26.38714 C 57.9821 % 17.45 C
1099 05-08-2018 00:00:00 24.70486 C 59.6424 % 16.32 C
1100 06-08-2018 00:00:00 24.16944 C 57.6563 % 15.29 C
Sensor: Nr:Datum:Temp:Feuchte:Taupunkt:
Aussen-T/F 1101 07-08-2018 00:00:00 26.73646 C 55.5104 % 17.09 C
1102 08-08-2018 00:00:00 25.29618 C 61.3021 % 17.31 C
1103 09-08-2018 00:00:00 20.57778 C 82.7639 % 17.54 C
1104 10-08-2018 00:00:00 18.35486 C 65.3924 % 11.76 C
1105 11-08-2018 00:00:00 18.37083 C 59.8611 % 10.44 C
1106 12-08-2018 00:00:00 18.15451 C 63.0729 % 11.02 C
1107 13-08-2018 00:00:00 17.68854 C 81.8924 % 14.56 C
1108 14-08-2018 00:00:00 18.53958 C 84.6563 % 15.91 C
1109 15-08-2018 00:00:00 19.375 C 79.2465 % 15.69 C
1110 16-08-2018 00:00:00 20.74444 C 71.2743 % 15.36 C
1111 17-08-2018 00:00:00 19.75903 C 76.6632 % 15.54 C
1112 18-08-2018 00:00:00 18.88785 C 68.7326 % 13.02 C
1113 19-08-2018 00:00:00 20.30521 C 67.4132 % 14.07 C
1114 20-08-2018 00:00:00 20.84444 C 73.5938 % 15.95 C
1115 21-08-2018 00:00:00 21.96979 C 70.6528 % 16.39 C
1116 22-08-2018 00:00:00 23.24757 C 65.7500 % 16.48 C
1117 23-08-2018 00:00:00 22.88681 C 69.0660 % 16.91 C
1118 24-08-2018 00:00:00 19.03368 C 65.5556 % 12.44 C
1119 25-08-2018 00:00:00 14.525 C 69.8438 % 9.09 C
1120 26-08-2018 00:00:00 13.80556 C 67.7882 % 7.96 C
1121 27-08-2018 00:00:00 18.12604 C 70.1493 % 12.6 C
1122 28-08-2018 00:00:00 18.12917 C 67.6632 % 12.06 C
1123 29-08-2018 00:00:00 17.15556 C 80.1528 % 13.71 C
1124 30-08-2018 00:00:00 17.22778 C 75.0799 % 12.78 C
1125 31-08-2018 00:00:00 15.05521 C 72.2951 % 10.11 C
Sensor: Nr:Datum:Temp:Feuchte:Taupunkt:
Aussen-T/F 1126 01-09-2018 00:00:00 14.30833 C 69.0799 % 8.72 C
1127 02-09-2018 00:00:00 14.27188 C 76.5347 % 10.21 C
1128 03-09-2018 00:00:00 18.05417 C 80.5556 % 14.66 C
1129 04-09-2018 00:00:00 20.01736 C 79.3507 % 16.33 C
1130 05-09-2018 00:00:00 20.91701 C 73.3229 % 15.97 C
1131 06-09-2018 00:00:00 18.07014 C 87.7049 % 16 C
1132 07-09-2018 00:00:00 15.72639 C 86.9479 % 13.56 C
1133 08-09-2018 00:00:00 13.53889 C 76.5139 % 9.49 C
1134 09-09-2018 00:00:00 16.94236 C 70.6667 % 11.58 C
1135 10-09-2018 00:00:00 17.5 C 71.7396 % 12.34 C
1136 11-09-2018 00:00:00 18.85868 C 70.4028 % 13.36 C
1137 12-09-2018 00:00:00 19.08646 C 71.2882 % 13.77 C
1138 13-09-2018 00:00:00 16.3625 C 85.6632 % 13.96 C
1139 14-09-2018 00:00:00 16.95174 C 71.3056 % 11.73 C
1140 15-09-2018 00:00:00 15.14028 C 70.3368 % 9.78 C
1141 16-09-2018 00:00:00 14.7184 C 71.4063 % 9.6 C
1142 17-09-2018 00:00:00 16.79306 C 68.7813 % 11.03 C
1143 18-09-2018 00:00:00 19.05208 C 70.2292 % 13.51 C
1144 19-09-2018 00:00:00 20.67951 C 71.7535 % 15.4 C
1145 20-09-2018 00:00:00 19.17153 C 72.3785 % 14.09 C
1146 21-09-2018 00:00:00 15.93472 C 78.7778 % 12.26 C
1147 22-09-2018 00:00:00 12.7566 C 77.2465 % 8.88 C
1148 23-09-2018 00:00:00 12.33056 C 94.4167 % 11.46 C
1149 24-09-2018 00:00:00 9.92396 C 85.7674 % 7.66 C
1150 25-09-2018 00:00:00 8.38785 C 85.7431 % 6.14 C
Sensor: Nr:Datum:Temp:Feuchte:Taupunkt:
Aussen-T/F 1151 26-09-2018 00:00:00 8.82917 C 82.7153 % 6.06 C
1152 27-09-2018 00:00:00 11.32708 C 83.9236 % 8.71 C
1153 28-09-2018 00:00:00 10.18526 C 91.0982 % 8.8 C
1154 29-09-2018 00:00:00 8.2941 C 81.8056 % 5.37 C
1155 30-09-2018 00:00:00 7.9427 C 82.6726 % 5.18 C
1156 01-10-2018 00:00:00 9.71701 C 81.2778 % 6.67 C
1157 02-10-2018 00:00:00 9.17604 C 87.5625 % 7.22 C
1158 03-10-2018 00:00:00 12.2809 C 82.0521 % 9.31 C
1159 04-10-2018 00:00:00 9.78056 C 87.1875 % 7.75 C
1160 05-10-2018 00:00:00 10.63021 C 88.2743 % 8.77 C
1161 06-10-2018 00:00:00 12.7691 C 89.0000 % 11 C
1162 07-10-2018 00:00:00 13.00243 C 89.0833 % 11.25 C
1163 08-10-2018 00:00:00 10.50347 C 88.5521 % 8.69 C
1164 09-10-2018 00:00:00 11.75035 C 91.4340 % 10.4 C
1165 10-10-2018 00:00:00 13.21285 C 90.3646 % 11.67 C
1166 11-10-2018 00:00:00 14.21701 C 88.2674 % 12.31 C
1167 12-10-2018 00:00:00 15.87882 C 86.2604 % 13.59 C
1168 13-10-2018 00:00:00 15.57986 C 84.2257 % 12.93 C
1169 14-10-2018 00:00:00 14.79965 C 83.0174 % 11.95 C
1170 15-10-2018 00:00:00 13.825 C 84.5903 % 11.28 C
1171 16-10-2018 00:00:00 12.87292 C 86.4653 % 10.67 C
1172 17-10-2018 00:00:00 12.82847 C 88.3368 % 10.95 C
1173 18-10-2018 00:00:00 14.04618 C 88.4722 % 12.17 C
1174 19-10-2018 00:00:00 12.08785 C 87.8889 % 10.14 C
1175 20-10-2018 00:00:00 11.03542 C 86.2431 % 8.83 C
Sensor: Nr:Datum:Temp:Feuchte:Taupunkt:
Aussen-T/F 1176 21-10-2018 00:00:00 7.3066 C 91.4479 % 6.01 C
1177 22-10-2018 00:00:00 7.67014 C 90.5417 % 6.22 C
1178 23-10-2018 00:00:00 9.04306 C 84.6944 % 6.61 C
1179 24-10-2018 00:00:00 14.07604 C 86.3472 % 11.83 C
1180 25-10-2018 00:00:00 12.94722 C 83.3368 % 10.19 C
1181 26-10-2018 00:00:00 10.21354 C 80.8299 % 7.07 C
1182 27-10-2018 00:00:00 6.27118 C 90.9340 % 4.9 C
1183 28-10-2018 00:00:00 5.67778 C 83.1424 % 3.05 C
1184 29-10-2018 00:00:00 6.43264 C 84.8160 % 4.07 C
1185 30-10-2018 00:00:00 6.2809 C 91.5868 % 5.02 C
1186 31-10-2018 00:00:00 7.45382 C 86.8194 % 5.41 C
1187 01-11-2018 00:00:00 6.13194 C 95.0799 % 5.4 C
1188 02-11-2018 00:00:00 8.86597 C 94.0486 % 7.96 C
1189 03-11-2018 00:00:00 3.50521 C 96.4549 % 3 C
1190 04-11-2018 00:00:00 6.86007 C 95.2361 % 6.15 C
1191 05-11-2018 00:00:00 10.39097 C 92.1042 % 9.17 C
1192 06-11-2018 00:00:00 8.41806 C 95.6667 % 7.77 C
1193 07-11-2018 00:00:00 9.32118 C 92.4167 % 8.16 C
1194 08-11-2018 00:00:00 10.425 C 89.0660 % 8.7 C
1195 09-11-2018 00:00:00 9.62604 C 92.9861 % 8.55 C
1196 10-11-2018 00:00:00 11.90347 C 90.1250 % 10.34 C
1197 11-11-2018 00:00:00 12.04618 C 90.5972 % 10.56 C
1198 12-11-2018 00:00:00 13.70069 C 90.0278 % 12.1 C
1199 13-11-2018 00:00:00 10.46076 C 92.4965 % 9.3 C
1200 14-11-2018 00:00:00 6.18264 C 96.5938 % 5.68 C
Sensor: Nr:Datum:Temp:Feuchte:Taupunkt:
Aussen-T/F 1201 15-11-2018 00:00:00 6.9816 C 91.5660 % 5.71 C
1202 16-11-2018 00:00:00 5.92778 C 89.7882 % 4.38 C
1203 17-11-2018 00:00:00 2.75417 C 88.6667 % 1.07 C
1204 18-11-2018 00:00:00 1.8566 C 79.8333 % -1.25 C
1205 19-11-2018 00:00:00 3.57014 C 81.2153 % 0.66 C
1206 20-11-2018 00:00:00 3.50972 C 80.1910 % 0.43 C
1207 21-11-2018 00:00:00 2.50312 C 88.6979 % 0.83 C
1208 22-11-2018 00:00:00 2.91458 C 88.0903 % 1.14 C
1209 23-11-2018 00:00:00 0.10868 C 95.3785 % -0.54 C
1210 24-11-2018 00:00:00 4.74792 C 96.2674 % 4.21 C
1211 25-11-2018 00:00:00 5.98785 C 95.8785 % 5.38 C
1212 26-11-2018 00:00:00 6.65625 C 87.8958 % 4.8 C
1213 27-11-2018 00:00:00 4.12465 C 83.8368 % 1.64 C
1214 28-11-2018 00:00:00 3.7 C 91.6667 % 2.47 C
1215 29-11-2018 00:00:00 5.67875 C 92.7735 % 4.6 C
1216 30-11-2018 00:00:00 7.44514 C 94.6875 % 6.65 C
1217 01-12-2018 00:00:00 7.48993 C 91.5833 % 6.21 C
1218 02-12-2018 00:00:00 11.28056 C 93.0868 % 10.21 C
1219 03-12-2018 00:00:00 11.76701 C 95.7708 % 11.11 C
1220 04-12-2018 00:00:00 6.48715 C 90.9653 % 5.12 C
1221 05-12-2018 00:00:00 3.60729 C 96.1806 % 3.06 C
1222 06-12-2018 00:00:00 9.76042 C 93.8924 % 8.83 C
1223 07-12-2018 00:00:00 11.22882 C 86.6667 % 9.09 C
1224 08-12-2018 00:00:00 7.97361 C 88.5035 % 6.19 C
1225 09-12-2018 00:00:00 8.02544 C 87.9756 % 6.16 C
Sensor: Nr:Datum:Temp:Feuchte:Taupunkt:
Aussen-T/F 1226 10-12-2018 00:00:00 4.96771 C 91.2639 % 3.67 C
1227 11-12-2018 00:00:00 3.84375 C 93.7118 % 2.93 C
1228 12-12-2018 00:00:00 2.70801 C 95.4948 % 2.06 C
1229 13-12-2018 00:00:00 1.36181 C 87.4618 % -0.49 C
1230 14-12-2018 00:00:00 1.15521 C 77.4757 % -2.33 C
1231 15-12-2018 00:00:00 0.62683 C 78.6202 % -2.65 C
1232 16-12-2018 00:00:00 0.77743 C 90.5382 % -0.59 C
1233 17-12-2018 00:00:00 4.19722 C 94.8194 % 3.44 C
1234 18-12-2018 00:00:00 5.08229 C 90.2917 % 3.63 C
1235 19-12-2018 00:00:00 6.54495 C 88.8537 % 4.84 C
1236 20-12-2018 00:00:00 7.58741 C 89.6818 % 6 C
1237 21-12-2018 00:00:00 10.78507 C 86.4514 % 8.62 C
1238 22-12-2018 00:00:00 9.94266 C 85.9091 % 7.7 C
1239 23-12-2018 00:00:00 8.60868 C 93.6563 % 7.65 C
1240 24-12-2018 00:00:00 4.88924 C 90.8750 % 3.53 C
1241 25-12-2018 00:00:00 1.85208 C 93.1667 % 0.87 C
1242 26-12-2018 00:00:00 -0.91736 C 95.5035 % -1.54 C
1243 27-12-2018 00:00:00 0.08125 C 95.8090 % -0.51 C
1244 28-12-2018 00:00:00 0.225 C 94.9375 % -0.49 C
1245 29-12-2018 00:00:00 2.70972 C 93.3576 % 1.75 C
1246 30-12-2018 00:00:00 7.50313 C 87.4271 % 5.55 C
1247 31-12-2018 00:00:00 7.59271 C 96.4201 % 7.06 C
1248 01-01-2019 00:00:00 7.09271 C 92.0833 % 5.9 C
1249 02-01-2019 00:00:00 3.70104 C 82.7847 % 1.05 C
1250 03-01-2019 00:00:00 2.03715 C 93.0000 % 1.03 C
Sensor: Nr:Datum:Temp:Feuchte:Taupunkt:
Aussen-T/F 1251 04-01-2019 00:00:00 3.13785 C 91.9826 % 1.96 C
1252 05-01-2019 00:00:00 5.92632 C 93.3825 % 4.94 C
1253 06-01-2019 00:00:00 5.76944 C 91.7674 % 4.54 C
1254 07-01-2019 00:00:00 5.50417 C 89.8819 % 3.98 C
1255 08-01-2019 00:00:00 6.62222 C 85.9688 % 4.45 C
1256 09-01-2019 00:00:00 3.90486 C 83.8368 % 1.43 C
1257 10-01-2019 00:00:00 2.05694 C 83.7708 % -0.39 C
1258 11-01-2019 00:00:00 2.82847 C 94.7882 % 2.08 C
1259 12-01-2019 00:00:00 5.96702 C 92.9734 % 4.92 C
1260 13-01-2019 00:00:00 7.73715 C 94.1493 % 6.86 C
1261 14-01-2019 00:00:00 5.07083 C 89.5625 % 3.5 C
1262 15-01-2019 00:00:00 4.78854 C 89.1007 % 3.15 C
1263 16-01-2019 00:00:00 5.27187 C 85.4861 % 3.04 C
1264 17-01-2019 00:00:00 5.0066 C 87.3924 % 3.09 C
1265 18-01-2019 00:00:00 0.77569 C 91.8611 % -0.39 C
1266 19-01-2019 00:00:00 -2.72396 C 93.3299 % -3.65 C
1267 20-01-2019 00:00:00 -4.97187 C 92.8854 % -5.94 C
1268 21-01-2019 00:00:00 -6.20972 C 93.8472 % -7.04 C
1269 22-01-2019 00:00:00 -4.96667 C 92.0938 % -6.05 C
1270 23-01-2019 00:00:00 -1.57743 C 89.4028 % -3.09 C
1271 24-01-2019 00:00:00 -1.91736 C 83.8854 % -4.27 C
1272 25-01-2019 00:00:00 0.28403 C 88.1354 % -1.44 C
1273 26-01-2019 00:00:00 4.48229 C 92.3229 % 3.35 C
1274 27-01-2019 00:00:00 5.94583 C 90.0868 % 4.45 C
1275 28-01-2019 00:00:00 3.17118 C 90.8854 % 1.83 C
Sensor: Nr:Datum:Temp:Feuchte:Taupunkt:
Aussen-T/F 1276 29-01-2019 00:00:00 1.73021 C 89.6875 % 0.22 C
1277 30-01-2019 00:00:00 0.45972 C 93.3264 % -0.49 C
1278 31-01-2019 00:00:00 -0.09826 C 94.7188 % -0.84 C
1279 01-02-2019 00:00:00 1.74826 C 95.6389 % 1.13 C
1280 02-02-2019 00:00:00 2.46701 C 96.8611 % 2.02 C
1281 03-02-2019 00:00:00 2.7 C 88.6910 % 1.02 C
1282 04-02-2019 00:00:00 1.83229 C 87.0625 % -0.09 C
1283 05-02-2019 00:00:00 4.34375 C 81.1771 % 1.41 C
1284 06-02-2019 00:00:00 1.17639 C 89.9688 % -0.28 C
1285 07-02-2019 00:00:00 5.09549 C 88.0833 % 3.29 C
1286 08-02-2019 00:00:00 7.42604 C 83.5417 % 4.83 C
1287 09-02-2019 00:00:00 8.6309 C 79.8056 % 5.35 C
1288 10-02-2019 00:00:00 7.96076 C 88.4965 % 6.18 C
1289 11-02-2019 00:00:00 4.86736 C 86.4931 % 2.81 C
1290 12-02-2019 00:00:00 3.71597 C 86.6563 % 1.7 C
1291 13-02-2019 00:00:00 1.77951 C 91.5833 % 0.56 C
1292 14-02-2019 00:00:00 0.77431 C 92.7674 % -0.26 C
1293 15-02-2019 00:00:00 2.33854 C 89.2917 % 0.76 C
1294 16-02-2019 00:00:00 3.375 C 88.6319 % 1.68 C
1295 17-02-2019 00:00:00 3.45451 C 89.9236 % 1.96 C
1296 18-02-2019 00:00:00 3.69653 C 86.8368 % 1.71 C
1297 19-02-2019 00:00:00 5.85868 C 87.7118 % 3.98 C
1298 20-02-2019 00:00:00 4.70694 C 89.0660 % 3.06 C
1299 21-02-2019 00:00:00 6.3625 C 90.0174 % 4.85 C
1300 22-02-2019 00:00:00 9.91111 C 88.0347 % 8.03 C
Sensor: Nr:Datum:Temp:Feuchte:Taupunkt:
Aussen-T/F 1301 23-02-2019 00:00:00 5.41076 C 78.7188 % 2.02 C
1302 24-02-2019 00:00:00 3.39271 C 73.0729 % -0.96 C
1303 25-02-2019 00:00:00 5.05139 C 74.1181 % 0.83 C
1304 26-02-2019 00:00:00 6.18646 C 80.1042 % 3.02 C
1305 27-02-2019 00:00:00 6.63576 C 79.5313 % 3.36 C
1306 28-02-2019 00:00:00 8.81701 C 78.9201 % 5.37 C
1307 01-03-2019 00:00:00 8.12708 C 91.9583 % 6.9 C
1308 02-03-2019 00:00:00 8.64236 C 85.0868 % 6.28 C
1309 03-03-2019 00:00:00 11.11319 C 80.0069 % 7.8 C
1310 04-03-2019 00:00:00 9.71875 C 78.3854 % 6.15 C
1311 05-03-2019 00:00:00 6.87396 C 81.6181 % 3.95 C
1312 06-03-2019 00:00:00 10.01944 C 78.9792 % 6.55 C
1313 07-03-2019 00:00:00 10.20729 C 79.2014 % 6.77 C
1314 08-03-2019 00:00:00 8.18854 C 79.1181 % 4.79 C
1315 09-03-2019 00:00:00 10.36875 C 76.7188 % 6.46 C
1316 10-03-2019 00:00:00 9.55694 C 76.8507 % 5.7 C
1317 11-03-2019 00:00:00 4.7934 C 79.8264 % 1.61 C
1318 12-03-2019 00:00:00 6.61563 C 70.1319 % 1.57 C
1319 13-03-2019 00:00:00 6.20382 C 82.8472 % 3.51 C
1320 14-03-2019 00:00:00 7.03611 C 87.2674 % 5.07 C
1321 15-03-2019 00:00:00 10.13993 C 87.2014 % 8.11 C
1322 16-03-2019 00:00:00 10.23472 C 85.5417 % 7.92 C
1323 17-03-2019 00:00:00 8.66319 C 77.8160 % 5.02 C
1324 18-03-2019 00:00:00 4.96458 C 85.1458 % 2.68 C
1325 19-03-2019 00:00:00 3.83715 C 80.5000 % 0.8 C
Sensor: Nr:Datum:Temp:Feuchte:Taupunkt:
Aussen-T/F 1326 20-03-2019 00:00:00 5.47951 C 77.2882 % 1.83 C
1327 21-03-2019 00:00:00 7.53194 C 73.6076 % 3.13 C
1328 22-03-2019 00:00:00 9.15799 C 72.1563 % 4.41 C
1329 23-03-2019 00:00:00 6.18576 C 87.5035 % 4.27 C
1330 24-03-2019 00:00:00 6.4583 C 83.7380 % 3.91 C
1331 25-03-2019 00:00:00 5.13299 C 86.0243 % 2.99 C
1332 26-03-2019 00:00:00 6.64792 C 81.5799 % 3.73 C
1333 27-03-2019 00:00:00 6.81528 C 80.7535 % 3.75 C
1334 28-03-2019 00:00:00 7.32535 C 81.7951 % 4.43 C
1335 29-03-2019 00:00:00 8.96493 C 79.2708 % 5.57 C
1336 30-03-2019 00:00:00 10.50104 C 72.7500 % 5.82 C
1337 31-03-2019 00:00:00 10.31594 C 80.1486 % 7.05 C
1338 01-04-2019 00:00:00 9.41771 C 75.2326 % 5.26 C
1339 02-04-2019 00:00:00 10.74375 C 76.1979 % 6.73 C
1340 03-04-2019 00:00:00 8.37083 C 86.8889 % 6.32 C
1341 04-04-2019 00:00:00 6.05799 C 93.2604 % 5.05 C
1342 05-04-2019 00:00:00 6.32535 C 92.0556 % 5.13 C
1343 06-04-2019 00:00:00 10.20313 C 83.4549 % 7.53 C
1344 07-04-2019 00:00:00 12.02083 C 75.0764 % 7.75 C
1345 08-04-2019 00:00:00 12.69757 C 85.2188 % 10.28 C
1346 09-04-2019 00:00:00 12.23472 C 88.4201 % 10.38 C
1347 10-04-2019 00:00:00 10.80035 C 65.8750 % 4.69 C
1348 11-04-2019 00:00:00 6.94306 C 60.9931 % -0.05 C
1349 12-04-2019 00:00:00 5.01528 C 58.9653 % -2.32 C
1350 13-04-2019 00:00:00 3.85556 C 75.6458 % -0.04 C
Sensor: Nr:Datum:Temp:Feuchte:Taupunkt:
Aussen-T/F 1351 14-04-2019 00:00:00 5.53576 C 76.5590 % 1.75 C
1352 15-04-2019 00:00:00 10.42187 C 69.5868 % 5.11 C
1353 16-04-2019 00:00:00 11.20417 C 67.0417 % 5.32 C
1354 17-04-2019 00:00:00 12.74861 C 83.8576 % 10.09 C
1355 18-04-2019 00:00:00 14.16528 C 65.0556 % 7.7 C
1356 19-04-2019 00:00:00 15.41285 C 56.3681 % 6.78 C
1357 20-04-2019 00:00:00 14.87153 C 61.3125 % 7.5 C
1358 21-04-2019 00:00:00 15.62813 C 58.4688 % 7.52 C
1359 22-04-2019 00:00:00 14.99375 C 59.5382 % 7.19 C
1360 23-04-2019 00:00:00 15.15903 C 61.0799 % 7.72 C
1361 24-04-2019 00:00:00 15.11424 C 73.1042 % 10.34 C
1362 25-04-2019 00:00:00 13.28785 C 78.5139 % 9.64 C
1363 26-04-2019 00:00:00 11.86806 C 83.8681 % 9.23 C
1364 27-04-2019 00:00:00 9.34688 C 89.7569 % 7.75 C
1365 28-04-2019 00:00:00 8.50208 C 83.0000 % 5.79 C
1366 29-04-2019 00:00:00 8.56736 C 84.4653 % 6.1 C
1367 30-04-2019 00:00:00 14.05278 C 68.6979 % 8.39 C
1368 01-05-2019 00:00:00 12.7816 C 76.3333 % 8.73 C
1369 02-05-2019 00:00:00 11.4566 C 80.2535 % 8.18 C
1370 03-05-2019 00:00:00 11.00208 C 73.3056 % 6.42 C
1371 04-05-2019 00:00:00 6.36493 C 84.2014 % 3.9 C
1372 05-05-2019 00:00:00 6.67882 C 81.4167 % 3.73 C
1373 06-05-2019 00:00:00 7.62465 C 77.0660 % 3.87 C
1374 07-05-2019 00:00:00 9.6066 C 73.7396 % 5.16 C
1375 08-05-2019 00:00:00 9.41667 C 88.5972 % 7.63 C
Sensor: Nr:Datum:Temp:Feuchte:Taupunkt:
Aussen-T/F 1376 09-05-2019 00:00:00 11.20938 C 88.9410 % 9.46 C
1377 10-05-2019 00:00:00 12.49306 C 77.5833 % 8.69 C
1378 11-05-2019 00:00:00 10.05833 C 93.1111 % 9 C
1379 12-05-2019 00:00:00 9.40625 C 72.7778 % 4.78 C
1380 13-05-2019 00:00:00 9.96736 C 61.6701 % 2.96 C
1381 14-05-2019 00:00:00 9.58299 C 64.4479 % 3.22 C
1382 15-05-2019 00:00:00 9.79896 C 60.9583 % 2.64 C
1383 16-05-2019 00:00:00 10.83854 C 70.4271 % 5.68 C
1384 17-05-2019 00:00:00 11.60069 C 89.4896 % 9.93 C
1385 18-05-2019 00:00:00 14.44306 C 85.5035 % 12.04 C
1386 19-05-2019 00:00:00 15.85694 C 83.5868 % 13.08 C
1387 20-05-2019 00:00:00 13.90347 C 89.8125 % 12.26 C
1388 21-05-2019 00:00:00 12.49722 C 93.0868 % 11.41 C
1389 22-05-2019 00:00:00 13.38785 C 80.8681 % 10.17 C
1390 23-05-2019 00:00:00 15.11875 C 74.1389 % 10.55 C
1391 24-05-2019 00:00:00 16.93437 C 70.9271 % 11.63 C
1392 25-05-2019 00:00:00 15.60035 C 67.4167 % 9.59 C
1393 26-05-2019 00:00:00 15.92014 C 74.4549 % 11.39 C
1394 27-05-2019 00:00:00 14.98924 C 90.8889 % 13.51 C
1395 28-05-2019 00:00:00 13.95729 C 85.1146 % 11.5 C
1396 29-05-2019 00:00:00 14.97951 C 68.2535 % 9.18 C
1397 30-05-2019 00:00:00 15.62396 C 78.5069 % 11.9 C
1398 31-05-2019 00:00:00 19.22674 C 74.1806 % 14.52 C
1399 01-06-2019 00:00:00 19.98924 C 74.3090 % 15.28 C
1400 02-06-2019 00:00:00 22.09028 C 70.5521 % 16.49 C
Sensor: Nr:Datum:Temp:Feuchte:Taupunkt:
Aussen-T/F 1401 03-06-2019 00:00:00 20.85625 C 73.4583 % 15.94 C
1402 04-06-2019 00:00:00 21.5059 C 73.6146 % 16.59 C
1403 05-06-2019 00:00:00 23.45243 C 67.8507 % 17.17 C
1404 06-06-2019 00:00:00 15.94271 C 78.5556 % 12.22 C
1405 07-06-2019 00:00:00 15.6809 C 76.3646 % 11.54 C
1406 08-06-2019 00:00:00 16.15243 C 62.7743 % 9.06 C
1407 09-06-2019 00:00:00 16.23438 C 72.8542 % 11.36 C
1408 10-06-2019 00:00:00 19.2684 C 73.8403 % 14.49 C
1409 11-06-2019 00:00:00 17.19063 C 83.4826 % 14.37 C
1410 12-06-2019 00:00:00 16.48854 C 82.3194 % 13.47 C
1411 13-06-2019 00:00:00 15.92743 C 75.5694 % 11.62 C
1412 14-06-2019 00:00:00 17.88507 C 82.6875 % 14.9 C
1413 15-06-2019 00:00:00 19.62083 C 79.3646 % 15.95 C
1414 16-06-2019 00:00:00 19.34479 C 71.4271 % 14.05 C
1415 17-06-2019 00:00:00 18.93646 C 73.1111 % 14.02 C
1416 18-06-2019 00:00:00 21.4625 C 72.7188 % 16.36 C
1417 19-06-2019 00:00:00 22.17049 C 73.3125 % 17.17 C
1418 20-06-2019 00:00:00 19.48229 C 80.3681 % 16.01 C
1419 21-06-2019 00:00:00 18.55694 C 68.4306 % 12.64 C
1420 22-06-2019 00:00:00 19.16771 C 69.5729 % 13.47 C
1421 23-06-2019 00:00:00 21.78854 C 71.5521 % 16.42 C
1422 24-06-2019 00:00:00 24.3809 C 68.9965 % 18.32 C
1423 25-06-2019 00:00:00 26.30625 C 65.6458 % 19.36 C
1424 26-06-2019 00:00:00 26.97257 C 66.5486 % 20.21 C
1425 27-06-2019 00:00:00 24.42326 C 58.6910 % 15.81 C
Sensor: Nr:Datum:Temp:Feuchte:Taupunkt:
Aussen-T/F 1426 28-06-2019 00:00:00 21.63368 C 60.1458 % 13.57 C
1427 29-06-2019 00:00:00 24.00937 C 53.3750 % 13.95 C
1428 30-06-2019 00:00:00 25.32014 C 62.4688 % 17.63 C
1429 01-07-2019 00:00:00 22.68715 C 60.6875 % 14.7 C
1430 02-07-2019 00:00:00 19.04306 C 61.0868 % 11.38 C
1431 03-07-2019 00:00:00 17.43472 C 61.1146 % 9.87 C
1432 04-07-2019 00:00:00 18.23021 C 56.4375 % 9.43 C
1433 05-07-2019 00:00:00 20.73889 C 56.5486 % 11.8 C
1434 06-07-2019 00:00:00 21.18681 C 61.5174 % 13.5 C
1435 07-07-2019 00:00:00 17.74306 C 68.3819 % 11.85 C
1436 08-07-2019 00:00:00 14.44931 C 70.9271 % 9.25 C
1437 09-07-2019 00:00:00 15.40868 C 66.0868 % 9.11 C
1438 10-07-2019 00:00:00 16.98854 C 57.9271 % 8.66 C
1439 11-07-2019 00:00:00 17.76076 C 79.7500 % 14.22 C
1440 12-07-2019 00:00:00 17.3375 C 92.0313 % 16.03 C
1441 13-07-2019 00:00:00 17.99896 C 83.4549 % 15.15 C
1442 14-07-2019 00:00:00 16.92569 C 75.5729 % 12.58 C
1443 15-07-2019 00:00:00 16.34757 C 73.9826 % 11.7 C
1444 16-07-2019 00:00:00 16.0375 C 75.3507 % 11.68 C
1445 17-07-2019 00:00:00 17.21979 C 76.2847 % 13.01 C
1446 18-07-2019 00:00:00 19.06944 C 74.1424 % 14.36 C
1447 19-07-2019 00:00:00 20.2441 C 77.7257 % 16.23 C
1448 20-07-2019 00:00:00 21.61736 C 75.2292 % 17.04 C
1449 21-07-2019 00:00:00 21.96076 C 68.7569 % 15.96 C
1450 22-07-2019 00:00:00 22.29861 C 66.0139 % 15.64 C
Sensor: Nr:Datum:Temp:Feuchte:Taupunkt:
Aussen-T/F 1451 23-07-2019 00:00:00 25.05139 C 61.5764 % 17.15 C
1452 24-07-2019 00:00:00 27.05069 C 57.6528 % 17.98 C
1453 25-07-2019 00:00:00 28.69028 C 53.5729 % 18.33 C
1454 26-07-2019 00:00:00 27.21528 C 56.0694 % 17.69 C
1455 27-07-2019 00:00:00 23.20069 C 79.9340 % 19.54 C
1456 28-07-2019 00:00:00 19.86597 C 90.5938 % 18.28 C
1457 29-07-2019 00:00:00 21.16354 C 73.6146 % 16.26 C
1458 30-07-2019 00:00:00 21.86528 C 66.5625 % 15.36 C
1459 31-07-2019 00:00:00 21.06111 C 60.7778 % 13.2 C
1460 01-08-2019 00:00:00 19.46424 C 65.5833 % 12.85 C
1461 02-08-2019 00:00:00 20.52743 C 69.8611 % 14.84 C
1462 03-08-2019 00:00:00 20.39271 C 72.5833 % 15.3 C
1463 04-08-2019 00:00:00 20.53854 C 68.3681 % 14.51 C
1464 05-08-2019 00:00:00 22.56562 C 67.3333 % 16.21 C
1465 06-08-2019 00:00:00 19.97604 C 80.0104 % 16.42 C
1466 07-08-2019 00:00:00 19.07535 C 87.4479 % 16.94 C
1467 08-08-2019 00:00:00 20.39132 C 75.4826 % 15.91 C
1468 09-08-2019 00:00:00 19.85833 C 86.8125 % 17.6 C
1469 10-08-2019 00:00:00 20.67986 C 77.2986 % 16.56 C
1470 11-08-2019 00:00:00 16.99444 C 80.9028 % 13.69 C
1471 12-08-2019 00:00:00 16.4441 C 84.5729 % 13.84 C
1472 13-08-2019 00:00:00 15.94306 C 78.5799 % 12.23 C
1473 14-08-2019 00:00:00 16.52882 C 76.0139 % 12.29 C
1474 15-08-2019 00:00:00 17.34306 C 88.4896 % 15.42 C
1475 16-08-2019 00:00:00 17.72257 C 80.7049 % 14.37 C
Sensor: Nr:Datum:Temp:Feuchte:Taupunkt:
Aussen-T/F 1476 17-08-2019 00:00:00 18.07049 C 86.6146 % 15.8 C
1477 18-08-2019 00:00:00 19.8941 C 90.2847 % 18.25 C
1478 19-08-2019 00:00:00 18.3684 C 77.8715 % 14.44 C
1479 20-08-2019 00:00:00 15.78611 C 80.0347 % 12.35 C
1480 21-08-2019 00:00:00 16.52222 C 75.4306 % 12.17 C
1481 22-08-2019 00:00:00 17.27465 C 72.3576 % 12.26 C
1482 23-08-2019 00:00:00 18.44792 C 70.9271 % 13.08 C
1483 24-08-2019 00:00:00 19.52326 C 70.7153 % 14.06 C
1484 25-08-2019 00:00:00 21.57431 C 75.4097 % 17.04 C
1485 26-08-2019 00:00:00 22.3684 C 80.4097 % 18.83 C
1486 27-08-2019 00:00:00 22.81979 C 79.4132 % 19.07 C
1487 28-08-2019 00:00:00 23.38924 C 73.0868 % 18.29 C
1488 29-08-2019 00:00:00 22.04201 C 76.9236 % 17.81 C
1489 30-08-2019 00:00:00 21.0059 C 72.4444 % 15.86 C
1490 31-08-2019 00:00:00 22.0566 C 72.1215 % 16.8 C
1491 01-09-2019 00:00:00 18.73056 C 76.1563 % 14.45 C
1492 02-09-2019 00:00:00 15.43958 C 67.8264 % 9.53 C
1493 03-09-2019 00:00:00 15.68611 C 70.4340 % 10.33 C
1494 04-09-2019 00:00:00 16.83646 C 77.0521 % 12.79 C
1495 05-09-2019 00:00:00 15.41285 C 74.8958 % 10.99 C
1496 06-09-2019 00:00:00 13.54271 C 71.3021 % 8.45 C
1497 07-09-2019 00:00:00 12.95382 C 86.8160 % 10.81 C
1498 08-09-2019 00:00:00 12.67778 C 94.2569 % 11.78 C
1499 09-09-2019 00:00:00 12.50868 C 90.4583 % 10.99 C
1500 10-09-2019 00:00:00 11.86563 C 85.2361 % 9.47 C
Sensor: Nr:Datum:Temp:Feuchte:Taupunkt:
Aussen-T/F 1501 11-09-2019 00:00:00 13.34931 C 80.9444 % 10.15 C
1502 12-09-2019 00:00:00 19.07292 C 78.3889 % 15.23 C
1503 13-09-2019 00:00:00 17.76319 C 88.1424 % 15.78 C
1504 14-09-2019 00:00:00 15.58229 C 81.1806 % 12.37 C
1505 15-09-2019 00:00:00 15.40243 C 78.5451 % 11.69 C
1506 16-09-2019 00:00:00 16.09444 C 78.7569 % 12.41 C
1507 17-09-2019 00:00:00 15.6191 C 73.6736 % 10.94 C
1508 18-09-2019 00:00:00 11.41215 C 73.9826 % 6.95 C
1509 19-09-2019 00:00:00 10.47361 C 74.5903 % 6.16 C
1510 20-09-2019 00:00:00 10.72153 C 72.3958 % 5.97 C
1511 21-09-2019 00:00:00 12.32465 C 69.3090 % 6.87 C
1512 22-09-2019 00:00:00 14.8625 C 75.8819 % 10.65 C
1513 23-09-2019 00:00:00 16.54479 C 84.7118 % 13.96 C
1514 24-09-2019 00:00:00 14.13194 C 90.2847 % 12.57 C
1515 25-09-2019 00:00:00 15.26806 C 90.7986 % 13.77 C
1516 26-09-2019 00:00:00 16.26111 C 92.6840 % 15.07 C
1517 27-09-2019 00:00:00 16.20451 C 86.9097 % 14.02 C
1518 28-09-2019 00:00:00 15.30903 C 84.9306 % 12.79 C
1519 29-09-2019 00:00:00 16.12778 C 82.9965 % 13.24 C
1520 30-09-2019 00:00:00 15.31424 C 80.2917 % 11.94 C
1521 01-10-2019 00:00:00 15.98125 C 88.2743 % 14.04 C
1522 02-10-2019 00:00:00 12.49479 C 83.0764 % 9.7 C
1523 03-10-2019 00:00:00 9.77535 C 90.5313 % 8.3 C
1524 04-10-2019 00:00:00 10.31563 C 95.1563 % 9.58 C
1525 05-10-2019 00:00:00 10.64965 C 87.9444 % 8.74 C
Sensor: Nr:Datum:Temp:Feuchte:Taupunkt:
Aussen-T/F 1526 06-10-2019 00:00:00 8.34063 C 95.9896 % 7.74 C
1527 07-10-2019 00:00:00 10.09167 C 94.3785 % 9.23 C
1528 08-10-2019 00:00:00 12.83333 C 94.7292 % 12.01 C
1529 09-10-2019 00:00:00 11.68715 C 92.5069 % 10.51 C
1530 10-10-2019 00:00:00 11.67509 C 86.3404 % 9.47 C
1531 11-10-2019 00:00:00 12.72361 C 89.2500 % 11 C
1532 12-10-2019 00:00:00 13.63368 C 89.1597 % 11.88 C
1533 13-10-2019 00:00:00 16.44722 C 91.2153 % 15.01 C
1534 14-10-2019 00:00:00 16.00938 C 89.6632 % 14.31 C
1535 15-10-2019 00:00:00 14.32674 C 92.2014 % 13.08 C
1536 16-10-2019 00:00:00 12.65347 C 94.1042 % 11.73 C
1537 17-10-2019 00:00:00 14.64826 C 90.9861 % 13.19 C
1538 18-10-2019 00:00:00 12.52604 C 91.7500 % 11.22 C
1539 19-10-2019 00:00:00 12.88561 C 90.9460 % 11.44 C
1540 20-10-2019 00:00:00 13.60139 C 97.5645 % 13.22 C
1541 21-10-2019 00:00:00 13.67735 C 93.5157 % 12.65 C
1542 22-10-2019 00:00:00 11.49819 C 91.8520 % 10.22 C
1543 23-10-2019 00:00:00 11.05972 C 94.7847 % 10.26 C
1544 24-10-2019 00:00:00 14.06458 C 92.1528 % 12.81 C
1545 25-10-2019 00:00:00 13.32951 C 87.3889 % 11.28 C
1546 26-10-2019 00:00:00 13.17604 C 91.4201 % 11.81 C
1547 27-10-2019 00:00:00 10.25174 C 93.0868 % 9.19 C
1548 28-10-2019 00:00:00 6.33854 C 96.7847 % 5.87 C
1549 29-10-2019 00:00:00 6.56632 C 92.0972 % 5.38 C
1550 30-10-2019 00:00:00 3.52778 C 93.9410 % 2.65 C
Sensor: Nr:Datum:Temp:Feuchte:Taupunkt:
Aussen-T/F 1551 31-10-2019 00:00:00 2.23438 C 93.5799 % 1.31 C
1552 01-11-2019 00:00:00 6.02465 C 96.1736 % 5.46 C
1553 02-11-2019 00:00:00 13.19792 C 90.2188 % 11.63 C
1554 03-11-2019 00:00:00 11.85035 C 91.8125 % 10.56 C
1555 04-11-2019 00:00:00 10.33333 C 92.9306 % 9.24 C
1556 05-11-2019 00:00:00 9.70972 C 89.4826 % 8.07 C
1557 06-11-2019 00:00:00 8.97569 C 95.1563 % 8.24 C
1558 07-11-2019 00:00:00 7.93611 C 95.3368 % 7.24 C
1559 08-11-2019 00:00:00 4.99444 C 96.5208 % 4.49 C
1560 09-11-2019 00:00:00 4.99167 C 94.0208 % 4.11 C
1561 10-11-2019 00:00:00 3.02188 C 95.6250 % 2.39 C
1562 11-11-2019 00:00:00 4.67986 C 91.5590 % 3.43 C
1563 12-11-2019 00:00:00 5.9125 C 88.3194 % 4.13 C
1564 13-11-2019 00:00:00 5.47431 C 88.2153 % 3.68 C
1565 14-11-2019 00:00:00 5.50729 C 85.9549 % 3.35 C
1566 15-11-2019 00:00:00 4.68958 C 88.1493 % 2.9 C
1567 16-11-2019 00:00:00 2.11389 C 95.5069 % 1.47 C
1568 17-11-2019 00:00:00 3.09271 C 97.1215 % 2.68 C
1569 18-11-2019 00:00:00 4.31181 C 96.2604 % 3.77 C
1570 19-11-2019 00:00:00 3.99132 C 94.7500 % 3.23 C
1571 20-11-2019 00:00:00 1.59583 C 94.7847 % 0.85 C
1572 21-11-2019 00:00:00 1.90833 C 96.0347 % 1.34 C
1573 22-11-2019 00:00:00 4.39097 C 95.3056 % 3.71 C
1574 23-11-2019 00:00:00 5.38785 C 93.0174 % 4.35 C
1575 24-11-2019 00:00:00 2.90104 C 97.1979 % 2.5 C
Sensor: Nr:Datum:Temp:Feuchte:Taupunkt:
Aussen-T/F 1576 25-11-2019 00:00:00 4.80833 C 97.1042 % 4.39 C
1577 26-11-2019 00:00:00 8.38542 C 94.7500 % 7.59 C
1578 27-11-2019 00:00:00 10.34479 C 89.7222 % 8.73 C
1579 28-11-2019 00:00:00 10.92778 C 83.5694 % 8.26 C
1580 29-11-2019 00:00:00 6.44618 C 89.1771 % 4.8 C
1581 30-11-2019 00:00:00 1.19549 C 96.2257 % 0.66 C
1582 01-12-2019 00:00:00 1.79271 C 92.4965 % 0.71 C
1583 02-12-2019 00:00:00 1.98646 C 93.2778 % 1.02 C
1584 03-12-2019 00:00:00 4.75729 C 96.0625 % 4.18 C
1585 04-12-2019 00:00:00 1.34375 C 96.3681 % 0.83 C
1586 05-12-2019 00:00:00 -1.15625 C 96.9167 % -1.58 C
1587 06-12-2019 00:00:00 3.41285 C 93.3160 % 2.44 C
1588 07-12-2019 00:00:00 8.70903 C 88.7882 % 6.97 C
1589 08-12-2019 00:00:00 10.05903 C 86.0243 % 7.83 C
1590 09-12-2019 00:00:00 7.72222 C 84.5833 % 5.29 C
1591 10-12-2019 00:00:00 3.24757 C 90.9167 % 1.91 C
1592 11-12-2019 00:00:00 3.97292 C 94.6632 % 3.2 C
1593 12-12-2019 00:00:00 3.52361 C 93.9618 % 2.65 C
1594 13-12-2019 00:00:00 4.09722 C 92.0938 % 2.93 C
1595 14-12-2019 00:00:00 6.8934 C 85.5833 % 4.65 C
1596 15-12-2019 00:00:00 7.90069 C 88.2847 % 6.09 C
1597 16-12-2019 00:00:00 8.12951 C 96.7951 % 7.65 C
1598 17-12-2019 00:00:00 10.43056 C 89.8924 % 8.85 C
1599 18-12-2019 00:00:00 7.77014 C 93.5347 % 6.79 C
1600 19-12-2019 00:00:00 5.57986 C 95.8611 % 4.97 C
Sensor: Nr:Datum:Temp:Feuchte:Taupunkt:
Aussen-T/F 1601 20-12-2019 00:00:00 7.73264 C 92.3542 % 6.57 C
1602 21-12-2019 00:00:00 7.24826 C 90.1111 % 5.74 C
1603 22-12-2019 00:00:00 8.18368 C 89.0243 % 6.49 C
1604 23-12-2019 00:00:00 7.83021 C 88.5660 % 6.06 C
1605 24-12-2019 00:00:00 7.67986 C 89.1910 % 6.02 C
1606 25-12-2019 00:00:00 7.66389 C 90.7500 % 6.25 C
1607 26-12-2019 00:00:00 4.9934 C 96.1910 % 4.44 C
1608 27-12-2019 00:00:00 5.12153 C 94.6042 % 4.33 C
1609 28-12-2019 00:00:00 -0.27465 C 95.9965 % -0.83 C
1610 29-12-2019 00:00:00 -1.04618 C 95.4028 % -1.69 C
1611 30-12-2019 00:00:00 -0.88507 C 94.5521 % -1.65 C
1612 31-12-2019 00:00:00 0.52326 C 93.2639 % -0.44 C
1613 01-01-2020 00:00:00 0.89583 C 94.9653 % 0.18 C
1614 02-01-2020 00:00:00 1.68611 C 94.9097 % 0.96 C
1615 03-01-2020 00:00:00 7.56111 C 91.1042 % 6.21 C
1616 04-01-2020 00:00:00 5.45936 C 89.2438 % 3.83 C
1617 05-01-2020 00:00:00 5.96021 C 93.0845 % 4.93 C
1618 06-01-2020 00:00:00 2.98542 C 93.2813 % 2.01 C
1619 07-01-2020 00:00:00 5.07812 C 92.2535 % 3.93 C
1620 08-01-2020 00:00:00 8.28333 C 92.5347 % 7.15 C
1621 09-01-2020 00:00:00 10.92535 C 92.7778 % 9.8 C
1622 10-01-2020 00:00:00 8.91667 C 88.2604 % 7.08 C
1623 11-01-2020 00:00:00 4.34236 C 88.6354 % 2.64 C
1624 12-01-2020 00:00:00 5.14718 C 87.9120 % 3.31 C
1625 13-01-2020 00:00:00 6.54201 C 91.7431 % 5.3 C
Sensor: Nr:Datum:Temp:Feuchte:Taupunkt:
Aussen-T/F 1626 14-01-2020 00:00:00 9.77153 C 77.8924 % 6.11 C
1627 15-01-2020 00:00:00 10.89063 C 76.6285 % 6.95 C
1628 16-01-2020 00:00:00 7.81181 C 95.4653 % 7.13 C
1629 17-01-2020 00:00:00 6.03854 C 93.7014 % 5.1 C
1630 18-01-2020 00:00:00 4.44062 C 88.2049 % 2.66 C
1631 19-01-2020 00:00:00 3.78507 C 94.1736 % 2.94 C
1632 20-01-2020 00:00:00 2.42431 C 91.7396 % 1.22 C
1633 21-01-2020 00:00:00 -1.80243 C 96.3750 % -2.3 C
1634 22-01-2020 00:00:00 -1.19236 C 97.1354 % -1.59 C
1635 23-01-2020 00:00:00 1.30764 C 97.1111 % 0.9 C
1636 24-01-2020 00:00:00 1.43415 C 91.4390 % 0.2 C
1637 25-01-2020 00:00:00 2.65128 C 94.0366 % 1.79 C
1638 26-01-2020 00:00:00 2.81007 C 94.9063 % 2.08 C
1639 27-01-2020 00:00:00 6.29028 C 94.0347 % 5.4 C
1640 28-01-2020 00:00:00 5.69583 C 86.0521 % 3.55 C
1641 29-01-2020 00:00:00 4.80035 C 82.8264 % 2.14 C
1642 30-01-2020 00:00:00 7.99861 C 84.7257 % 5.59 C
1643 31-01-2020 00:00:00 13.03785 C 84.2014 % 10.44 C
1644 01-02-2020 00:00:00 11.64167 C 87.8160 % 9.69 C
1645 02-02-2020 00:00:00 10.18611 C 84.6319 % 7.72 C
1646 03-02-2020 00:00:00 10.60417 C 82.2847 % 7.71 C
1647 04-02-2020 00:00:00 5.02986 C 89.6736 % 3.48 C
1648 05-02-2020 00:00:00 3.76389 C 88.0764 % 1.98 C
1649 06-02-2020 00:00:00 0.78437 C 93.4340 % -0.15 C
1650 07-02-2020 00:00:00 0.2559 C 95.0521 % -0.44 C
Sensor: Nr:Datum:Temp:Feuchte:Taupunkt:
Aussen-T/F 1651 08-02-2020 00:00:00 1.77708 C 94.2569 % 0.95 C
1652 09-02-2020 00:00:00 8.82708 C 82.6076 % 6.03 C
1653 10-02-2020 00:00:00 8.29444 C 82.5104 % 5.5 C
1654 11-02-2020 00:00:00 5.77535 C 73.1319 % 1.35 C
1655 12-02-2020 00:00:00 4.81875 C 81.1910 % 1.87 C
1656 13-02-2020 00:00:00 4.01076 C 92.9375 % 2.97 C
1657 14-02-2020 00:00:00 6.17951 C 91.1042 % 4.84 C
1658 15-02-2020 00:00:00 6.23438 C 89.5347 % 4.64 C
1659 16-02-2020 00:00:00 14.59028 C 64.9583 % 8.08 C
1660 17-02-2020 00:00:00 8.54375 C 82.6597 % 5.77 C
1661 18-02-2020 00:00:00 7.24965 C 80.2083 % 4.07 C
1662 19-02-2020 00:00:00 6.24514 C 77.9688 % 2.7 C
1663 20-02-2020 00:00:00 8.16562 C 82.5000 % 5.37 C
1664 21-02-2020 00:00:00 5.17604 C 82.3542 % 2.42 C
1665 22-02-2020 00:00:00 8.05035 C 78.1007 % 4.47 C
1666 23-02-2020 00:00:00 10.5066 C 86.7535 % 8.4 C
1667 24-02-2020 00:00:00 8.10972 C 87.2431 % 6.12 C
1668 25-02-2020 00:00:00 9.07813 C 81.3194 % 6.05 C
1669 26-02-2020 00:00:00 4.86319 C 80.5799 % 1.81 C
1670 27-02-2020 00:00:00 2.97813 C 90.2500 % 1.54 C
1671 28-02-2020 00:00:00 3.97257 C 87.1111 % 2.03 C
1672 29-02-2020 00:00:00 8.92083 C 83.1944 % 6.23 C
1673 01-03-2020 00:00:00 7.55313 C 83.2500 % 4.9 C
1674 02-03-2020 00:00:00 6.27882 C 88.9965 % 4.6 C
1675 03-03-2020 00:00:00 4.69236 C 88.6910 % 2.99 C
Sensor: Nr:Datum:Temp:Feuchte:Taupunkt:
Aussen-T/F 1676 04-03-2020 00:00:00 5.49583 C 85.8333 % 3.32 C
1677 05-03-2020 00:00:00 6.08229 C 93.0486 % 5.05 C
1678 06-03-2020 00:00:00 6.29896 C 90.4271 % 4.85 C
1679 07-03-2020 00:00:00 6.57396 C 78.9375 % 3.19 C
1680 08-03-2020 00:00:00 9.63993 C 76.9618 % 5.8 C
1681 09-03-2020 00:00:00 7.99514 C 81.5208 % 5.03 C
1682 10-03-2020 00:00:00 9.51076 C 90.5833 % 8.05 C
1683 11-03-2020 00:00:00 14.09028 C 86.0660 % 11.8 C
1684 12-03-2020 00:00:00 11.24514 C 72.6007 % 6.51 C
1685 13-03-2020 00:00:00 7.37569 C 76.2951 % 3.49 C
1686 14-03-2020 00:00:00 6.05799 C 83.2604 % 3.44 C
1687 15-03-2020 00:00:00 8.92639 C 74.2326 % 4.6 C
1688 16-03-2020 00:00:00 9.3 C 80.2431 % 6.08 C
1689 17-03-2020 00:00:00 11.38021 C 79.9722 % 8.05 C
1690 18-03-2020 00:00:00 9.96493 C 82.5590 % 7.14 C
1691 19-03-2020 00:00:00 12.13646 C 76.1042 % 8.06 C
1692 20-03-2020 00:00:00 10.33299 C 84.0660 % 7.76 C
1693 21-03-2020 00:00:00 6.16667 C 76.4236 % 2.34 C
1694 22-03-2020 00:00:00 4.50243 C 57.8438 % -3.06 C
1695 23-03-2020 00:00:00 2.99688 C 55.3889 % -5.05 C
1696 24-03-2020 00:00:00 2.86181 C 56.4375 % -4.93 C
1697 25-03-2020 00:00:00 3.75208 C 52.7257 % -4.99 C
1698 26-03-2020 00:00:00 5.07118 C 57.3819 % -2.64 C
1699 27-03-2020 00:00:00 7.93715 C 66.7500 % 2.15 C
1700 28-03-2020 00:00:00 9.59861 C 66.6528 % 3.71 C
Sensor: Nr:Datum:Temp:Feuchte:Taupunkt:
Aussen-T/F 1701 29-03-2020 00:00:00 5.44891 C 69.6413 % 0.36 C
1702 30-03-2020 00:00:00 2.775 C 64.1319 % -3.31 C
1703 31-03-2020 00:00:00 5.47118 C 66.1771 % -0.32 C
1704 01-04-2020 00:00:00 3.8184 C 62.2569 % -2.72 C
1705 02-04-2020 00:00:00 5.06042 C 67.9931 % -0.35 C
1706 03-04-2020 00:00:00 8.20382 C 67.0382 % 2.46 C
1707 04-04-2020 00:00:00 6.78958 C 68.9722 % 1.51 C
1708 05-04-2020 00:00:00 9.49479 C 65.0729 % 3.27 C
1709 06-04-2020 00:00:00 12.0434 C 60.3299 % 4.61 C
1710 07-04-2020 00:00:00 13.80521 C 67.0417 % 7.8 C
1711 08-04-2020 00:00:00 14.48472 C 65.0764 % 8.01 C
1712 09-04-2020 00:00:00 15.29167 C 62.6840 % 8.22 C
1713 10-04-2020 00:00:00 14.13646 C 66.3542 % 7.96 C
1714 11-04-2020 00:00:00 14.06563 C 57.0417 % 5.7 C
1715 12-04-2020 00:00:00 15.15174 C 60.2361 % 7.51 C
1716 13-04-2020 00:00:00 9.40139 C 69.2118 % 4.05 C
1717 14-04-2020 00:00:00 6.11181 C 64.0868 % -0.16 C
1718 15-04-2020 00:00:00 8.67361 C 64.9514 % 2.46 C
1719 16-04-2020 00:00:00 12.83299 C 63.9514 % 6.19 C
1720 17-04-2020 00:00:00 15.23854 C 69.5278 % 9.71 C
1721 18-04-2020 00:00:00 14.52083 C 78.8333 % 10.89 C
1722 19-04-2020 00:00:00 13.06597 C 78.2396 % 9.37 C
1723 20-04-2020 00:00:00 12.5066 C 50.4653 % 2.51 C
1724 21-04-2020 00:00:00 13.59583 C 47.9965 % 2.81 C
1725 22-04-2020 00:00:00 14.35 C 50.4549 % 4.2 C
Sensor: Nr:Datum:Temp:Feuchte:Taupunkt:
Aussen-T/F 1726 23-04-2020 00:00:00 14.16042 C 57.7604 % 5.97 C
1727 24-04-2020 00:00:00 13.96285 C 61.8542 % 6.77 C
1728 25-04-2020 00:00:00 12.06389 C 62.5347 % 5.14 C
1729 26-04-2020 00:00:00 11.44375 C 66.4514 % 5.42 C
1730 27-04-2020 00:00:00 12.89201 C 66.5382 % 6.82 C
1731 28-04-2020 00:00:00 12.69306 C 86.7639 % 10.55 C
1732 29-04-2020 00:00:00 14.31979 C 76.7049 % 10.29 C
1733 30-04-2020 00:00:00 12.21632 C 83.3299 % 9.48 C
1734 01-05-2020 00:00:00 10.57674 C 86.4444 % 8.41 C
1735 02-05-2020 00:00:00 9.93542 C 83.8403 % 7.33 C
1736 03-05-2020 00:00:00 10.39028 C 77.2500 % 6.59 C
1737 04-05-2020 00:00:00 11.82361 C 83.7986 % 9.18 C
1738 05-05-2020 00:00:00 10.30833 C 68.8333 % 4.84 C
1739 06-05-2020 00:00:00 10.34687 C 62.9375 % 3.61 C
1740 07-05-2020 00:00:00 12.36771 C 67.0278 % 6.43 C
1741 08-05-2020 00:00:00 15.11146 C 64.7535 % 8.53 C
1742 09-05-2020 00:00:00 15.97396 C 71.7986 % 10.89 C
1743 10-05-2020 00:00:00 15.5441 C 87.0729 % 13.4 C
1744 11-05-2020 00:00:00 9.41007 C 72.6944 % 4.76 C
1745 12-05-2020 00:00:00 7.67674 C 65.0833 % 1.54 C
1746 13-05-2020 00:00:00 8.92604 C 67.5104 % 3.25 C
1747 14-05-2020 00:00:00 9.71389 C 66.2535 % 3.73 C
1748 15-05-2020 00:00:00 10.43264 C 60.9375 % 3.23 C
1749 16-05-2020 00:00:00 11.17396 C 64.1319 % 4.66 C
1750 17-05-2020 00:00:00 13.11528 C 63.3750 % 6.33 C
Sensor: Nr:Datum:Temp:Feuchte:Taupunkt:
Aussen-T/F 1751 18-05-2020 00:00:00 15.67292 C 64.9167 % 9.1 C
1752 19-05-2020 00:00:00 16.60729 C 65.8542 % 10.2 C
1753 20-05-2020 00:00:00 17.77917 C 71.9375 % 12.65 C
1754 21-05-2020 00:00:00 19.01562 C 69.2535 % 13.26 C
1755 22-05-2020 00:00:00 19.97639 C 75.2535 % 15.46 C
1756 23-05-2020 00:00:00 13.69236 C 87.6181 % 11.68 C
1757 24-05-2020 00:00:00 13.58542 C 74.5799 % 9.16 C
1758 25-05-2020 00:00:00 15.93854 C 74.9514 % 11.51 C
1759 26-05-2020 00:00:00 14.58437 C 71.8056 % 9.56 C
1760 27-05-2020 00:00:00 16.48611 C 64.8958 % 9.87 C
1761 28-05-2020 00:00:00 17.49132 C 54.2049 % 8.15 C
1762 29-05-2020 00:00:00 15.20764 C 57.9097 % 6.98 C
1763 30-05-2020 00:00:00 15.6941 C 55.5278 % 6.83 C
1764 31-05-2020 00:00:00 15.11597 C 60.7847 % 7.61 C
1765 01-06-2020 00:00:00 17.87257 C 60.3785 % 10.1 C
1766 02-06-2020 00:00:00 19.76701 C 57.8264 % 11.23 C
1767 03-06-2020 00:00:00 19.96667 C 60.3333 % 12.06 C
1768 04-06-2020 00:00:00 14.67257 C 91.4792 % 13.3 C
1769 05-06-2020 00:00:00 11.51111 C 85.9722 % 9.25 C
1770 06-06-2020 00:00:00 12.4684 C 81.1806 % 9.33 C
1771 07-06-2020 00:00:00 13.39861 C 74.3194 % 8.93 C
1772 08-06-2020 00:00:00 14.75035 C 72.9375 % 9.95 C
1773 09-06-2020 00:00:00 13.99236 C 88.3715 % 12.1 C
1774 10-06-2020 00:00:00 15.4 C 85.7326 % 13.02 C
1775 11-06-2020 00:00:00 15.74271 C 85.5799 % 13.33 C
Sensor: Nr:Datum:Temp:Feuchte:Taupunkt:
Aussen-T/F 1776 12-06-2020 00:00:00 19.42083 C 73.5938 % 14.58 C
1777 13-06-2020 00:00:00 20.95799 C 70.8958 % 15.48 C
1778 14-06-2020 00:00:00 18.87917 C 80.4340 % 15.44 C
1779 15-06-2020 00:00:00 18.60291 C 80.5345 % 15.19 C
1780 16-06-2020 00:00:00 18.0434 C 88.9236 % 16.19 C
1781 17-06-2020 00:00:00 17.45903 C 89.6771 % 15.75 C
1782 18-06-2020 00:00:00 18.51528 C 77.4028 % 14.49 C
1783 19-06-2020 00:00:00 16.72674 C 84.4549 % 14.09 C
1784 20-06-2020 00:00:00 16.94271 C 84.7535 % 14.36 C
1785 21-06-2020 00:00:00 19.05278 C 74.7396 % 14.47 C
1786 22-06-2020 00:00:00 18.83785 C 72.4236 % 13.77 C
1787 23-06-2020 00:00:00 19.59583 C 68.6840 % 13.69 C
1788 24-06-2020 00:00:00 21.22153 C 60.2153 % 13.21 C
1789 25-06-2020 00:00:00 21.70278 C 67.7535 % 15.48 C
1790 26-06-2020 00:00:00 21.67743 C 70.8264 % 16.15 C
1791 27-06-2020 00:00:00 22.68785 C 72.4479 % 17.48 C
1792 28-06-2020 00:00:00 19.86979 C 72.4236 % 14.77 C
1793 29-06-2020 00:00:00 17.69792 C 71.6701 % 12.52 C
1794 30-06-2020 00:00:00 16.88194 C 71.2639 % 11.65 C
1795 01-07-2020 00:00:00 21.29896 C 71.3889 % 15.91 C
1796 02-07-2020 00:00:00 18.73125 C 81.7639 % 15.55 C
1797 03-07-2020 00:00:00 17.73958 C 72.1597 % 12.66 C
1798 04-07-2020 00:00:00 19.09826 C 68.4722 % 13.16 C
1799 05-07-2020 00:00:00 22.80243 C 71.1076 % 17.29 C
1800 06-07-2020 00:00:00 16.79653 C 65.8646 % 10.38 C
Sensor: Nr:Datum:Temp:Feuchte:Taupunkt:
Aussen-T/F 1801 07-07-2020 00:00:00 16.09792 C 67.7292 % 10.14 C
1802 08-07-2020 00:00:00 15.87639 C 86.0139 % 13.54 C
1803 09-07-2020 00:00:00 21.61424 C 74.6667 % 16.92 C
1804 10-07-2020 00:00:00 18.63368 C 78.6215 % 14.85 C
1805 11-07-2020 00:00:00 16.57431 C 67.3646 % 10.51 C
1806 12-07-2020 00:00:00 16.85382 C 66.0139 % 10.47 C
1807 13-07-2020 00:00:00 19.08542 C 59.6354 % 11.05 C
1808 14-07-2020 00:00:00 18.66215 C 67.1389 % 12.45 C
1809 15-07-2020 00:00:00 17.55208 C 72.7569 % 12.61 C
1810 16-07-2020 00:00:00 16.0875 C 88.8715 % 14.25 C
1811 17-07-2020 00:00:00 18.58611 C 80.2222 % 15.11 C
1812 18-07-2020 00:00:00 19.51944 C 74.3264 % 14.83 C
1813 19-07-2020 00:00:00 22.30451 C 63.0590 % 14.94 C
1814 20-07-2020 00:00:00 19.42708 C 71.6215 % 14.17 C
1815 21-07-2020 00:00:00 17.64722 C 62.2118 % 10.34 C
1816 22-07-2020 00:00:00 17.13264 C 62.9931 % 10.04 C
1817 23-07-2020 00:00:00 18.84618 C 60.0208 % 10.93 C
1818 24-07-2020 00:00:00 21.21007 C 59.2118 % 12.94 C
1819 25-07-2020 00:00:00 21.01562 C 67.9618 % 14.88 C
1820 26-07-2020 00:00:00 20.87674 C 70.5660 % 15.33 C
1821 27-07-2020 00:00:00 21.66215 C 63.9306 % 14.54 C
1822 28-07-2020 00:00:00 22.91424 C 54.3299 % 13.21 C
1823 29-07-2020 00:00:00 18.94583 C 61.6007 % 11.41 C
1824 30-07-2020 00:00:00 20.4309 C 59.1424 % 12.19 C
1825 31-07-2020 00:00:00 24.16007 C 52.9340 % 13.96 C
Sensor: Nr:Datum:Temp:Feuchte:Taupunkt:
Aussen-T/F 1826 01-08-2020 00:00:00 21.98437 C 78.4896 % 18.07 C
1827 02-08-2020 00:00:00 21.28472 C 73.8993 % 16.44 C

Maximal/Minimal-Werte vom 03.08.2015 - 02.08.2020

Sensor Min Max Avg
Temp
(Aussen-T/F)
-10.6 °C
22-01-2017  07:55:00
40.4 °C
25-07-2019  16:20:00
11.31 °C
Feuchte
(Aussen-T/F)
18 %
03-07-2018  17:25:00
99 %
29-12-2015  15:05:00
82.46 %
Taupunkt
(Aussen-T/F)
-11.99 C
28-02-2018  00:00:00
20.49 C
24-06-2016  00:00:00
8.26 C

Die Daten stammen von einer Davis Vantage Pro 2 Wetter-Station und werden unter Linux mit der Software wview2wettercgi und aufbereitet. Alle Angaben erfolgen ohne Gewähr für ihre Vollständigkeit oder Richtigkeit.
Kontakt: Rainer Krienke krienke@uni-koblenz.de . Meine Webseiten an der Uni Koblenz oder privat.
Version: $Revision: 0.78 $